Time,TemperatureF,DewpointF,PressureIn,WindDirection,WindDirectionDegrees,WindSpeedMPH,WindSpeedGustMPH,Humidity,HourlyPrecipIn,Conditions,Clouds,dailyrainin,SoftwareType,DateUTC
2013-04-24 00:00:00,41.1,39.5,30.20,NNE,31,2.0,9.0,94,0.00,,SKC,0.02,VWS V13.01,2013-04-24 04:00:00,
2013-04-24 00:01:00,41.1,39.5,30.20,NNE,31,1.0,9.0,94,0.00,,SKC,0.02,VWS V13.01,2013-04-24 04:01:00,
2013-04-24 00:02:00,41.1,39.5,30.20,NNE,31,2.0,9.0,94,0.00,,SKC,0.02,VWS V13.01,2013-04-24 04:02:00,
2013-04-24 00:03:00,41.2,39.6,30.19,NNE,32,4.0,8.0,94,0.00,,SKC,0.00,VWS V13.01,2013-04-24 04:03:00,
2013-04-24 00:04:00,41.2,39.6,30.19,NNE,32,3.0,8.0,94,0.00,,SKC,0.00,VWS V13.01,2013-04-24 04:04:00,
2013-04-24 00:05:00,41.2,39.6,30.19,NNE,18,5.0,8.0,94,0.00,,SKC,0.00,VWS V13.01,2013-04-24 04:05:00,
2013-04-24 00:06:00,41.2,39.6,30.19,NE,37,3.0,8.0,94,0.00,,SKC,0.00,VWS V13.01,2013-04-24 04:06:00,
2013-04-24 00:07:00,41.1,39.5,30.20,NE,44,3.0,9.0,94,0.00,,SKC,0.02,VWS V13.01,2013-04-24 04:07:00,
2013-04-24 00:08:00,41.3,39.7,30.19,NNE,32,3.0,8.0,94,0.00,,SKC,0.00,VWS V13.01,2013-04-24 04:08:00,
2013-04-24 00:09:00,41.3,39.7,30.19,NE,38,6.0,9.0,94,0.00,,SKC,0.00,VWS V13.01,2013-04-24 04:09:00,
2013-04-24 00:10:00,41.3,39.7,30.19,NE,37,4.0,9.0,94,0.00,,SKC,0.00,VWS V13.01,2013-04-24 04:10:00,
2013-04-24 00:11:00,41.3,39.7,30.19,NNE,28,1.0,9.0,94,0.00,,SKC,0.00,VWS V13.01,2013-04-24 04:11:00,
2013-04-24 00:12:00,41.2,39.6,30.19,NE,35,4.0,8.0,94,0.00,,SKC,0.00,VWS V13.01,2013-04-24 04:12:00,
2013-04-24 00:13:00,41.3,39.7,30.19,NE,37,2.0,9.0,94,0.00,,SKC,0.00,VWS V13.01,2013-04-24 04:13:00,
2013-04-24 00:14:00,41.3,39.7,30.19,NNE,30,2.0,9.0,94,0.00,,SKC,0.00,VWS V13.01,2013-04-24 04:14:00,
2013-04-24 00:15:00,41.3,39.7,30.19,NNE,24,3.0,9.0,94,0.00,,SKC,0.00,VWS V13.01,2013-04-24 04:15:00,
2013-04-24 00:16:00,41.3,39.7,30.19,NNE,28,5.0,9.0,94,0.00,,SKC,0.00,VWS V13.01,2013-04-24 04:16:00,
2013-04-24 00:17:00,41.3,39.7,30.19,NE,34,2.0,9.0,94,0.00,,SKC,0.00,VWS V13.01,2013-04-24 04:17:00,
2013-04-24 00:18:00,41.3,39.7,30.19,NNE,32,4.0,8.0,94,0.00,,SKC,0.00,VWS V13.01,2013-04-24 04:18:00,
2013-04-24 00:19:00,41.3,39.7,30.19,NNE,30,1.0,9.0,94,0.00,,SKC,0.00,VWS V13.01,2013-04-24 04:19:00,
2013-04-24 00:20:00,41.2,39.6,30.19,NNE,30,1.0,9.0,94,0.00,,SKC,0.00,VWS V13.01,2013-04-24 04:20:00,
2013-04-24 00:21:00,41.3,39.7,30.19,NNE,29,2.0,9.0,94,0.00,,SKC,0.00,VWS V13.01,2013-04-24 04:21:00,
2013-04-24 00:22:00,41.3,39.7,30.18,NNE,31,1.0,9.0,94,0.00,,SKC,0.00,VWS V13.01,2013-04-24 04:22:00,
2013-04-24 00:23:00,41.3,39.7,30.19,NE,37,3.0,9.0,94,0.00,,SKC,0.00,VWS V13.01,2013-04-24 04:23:00,
2013-04-24 00:24:00,41.3,39.7,30.18,NNE,19,1.0,9.0,94,0.00,,SKC,0.00,VWS V13.01,2013-04-24 04:24:00,
2013-04-24 00:25:00,41.3,39.7,30.18,North,355,4.0,9.0,94,0.00,,SKC,0.00,VWS V13.01,2013-04-24 04:25:00,
2013-04-24 00:26:00,41.2,39.6,30.18,NNE,24,3.0,9.0,94,0.00,,SKC,0.00,VWS V13.01,2013-04-24 04:26:00,
2013-04-24 00:27:00,41.2,39.6,30.18,NNE,23,5.0,9.0,94,0.00,,SKC,0.00,VWS V13.01,2013-04-24 04:27:00,
2013-04-24 00:28:00,41.3,39.7,30.19,NNE,30,3.0,9.0,94,0.00,,SKC,0.00,VWS V13.01,2013-04-24 04:28:00,
2013-04-24 00:29:00,41.2,39.6,30.18,NNE,26,2.0,9.0,94,0.00,,SKC,0.00,VWS V13.01,2013-04-24 04:29:00,
2013-04-24 00:30:00,41.2,39.6,30.18,NNW,340,0.0,9.0,94,0.00,,SKC,0.00,VWS V13.01,2013-04-24 04:30:00,
2013-04-24 00:31:00,41.2,39.6,30.18,NE,41,3.0,3.0,94,0.00,,SKC,0.00,VWS V13.01,2013-04-24 04:31:00,
2013-04-24 00:32:00,41.1,39.5,30.18,NNE,28,3.0,4.0,94,0.00,,SKC,0.00,VWS V13.01,2013-04-24 04:32:00,
2013-04-24 00:33:00,41.3,39.7,30.18,NNE,22,3.0,9.0,94,0.00,,SKC,0.00,VWS V13.01,2013-04-24 04:33:00,
2013-04-24 00:34:00,41.2,39.6,30.18,NNW,340,2.0,6.0,94,0.00,,SKC,0.00,VWS V13.01,2013-04-24 04:34:00,
2013-04-24 00:35:00,41.2,39.6,30.18,NE,44,5.0,8.0,94,0.00,,SKC,0.00,VWS V13.01,2013-04-24 04:35:00,
2013-04-24 00:36:00,41.1,39.5,30.18,NE,37,4.0,8.0,94,0.00,,SKC,0.00,VWS V13.01,2013-04-24 04:36:00,
2013-04-24 00:37:00,41.1,39.5,30.18,NNE,15,3.0,8.0,94,0.00,,SKC,0.00,VWS V13.01,2013-04-24 04:37:00,
2013-04-24 00:38:00,41.2,39.6,30.18,NNW,331,4.0,9.0,94,0.00,,SKC,0.00,VWS V13.01,2013-04-24 04:38:00,
2013-04-24 00:39:00,41.1,39.5,30.18,NNE,33,2.0,8.0,94,0.00,,SKC,0.00,VWS V13.01,2013-04-24 04:39:00,
2013-04-24 00:40:00,41.1,39.5,30.18,NNW,336,3.0,8.0,94,0.00,,SKC,0.00,VWS V13.01,2013-04-24 04:40:00,
2013-04-24 00:41:00,41.1,39.5,30.17,NNE,33,3.0,8.0,94,0.00,,SKC,0.00,VWS V13.01,2013-04-24 04:41:00,
2013-04-24 00:42:00,41.1,39.5,30.17,NE,51,5.0,8.0,94,0.00,,SKC,0.00,VWS V13.01,2013-04-24 04:42:00,
2013-04-24 00:43:00,41.2,39.6,30.18,NE,38,4.0,6.0,94,0.00,,SKC,0.00,VWS V13.01,2013-04-24 04:43:00,
2013-04-24 00:44:00,41.1,39.5,30.17,NE,43,2.0,9.0,94,0.00,,SKC,0.00,VWS V13.01,2013-04-24 04:44:00,
2013-04-24 00:45:00,41.1,39.5,30.17,NNE,13,3.0,9.0,94,0.00,,SKC,0.00,VWS V13.01,2013-04-24 04:45:00,
2013-04-24 00:46:00,41.1,39.5,30.17,NNE,15,6.0,9.0,94,0.00,,SKC,0.00,VWS V13.01,2013-04-24 04:46:00,
2013-04-24 00:47:00,41.1,39.5,30.17,NNE,22,1.0,9.0,94,0.00,,SKC,0.00,VWS V13.01,2013-04-24 04:47:00,
2013-04-24 00:48:00,41.1,39.5,30.18,NNE,29,3.0,8.0,94,0.00,,SKC,0.00,VWS V13.01,2013-04-24 04:48:00,
2013-04-24 00:49:00,41.1,39.5,30.17,NE,40,5.0,12.0,94,0.01,,SKC,0.01,VWS V13.01,2013-04-24 04:49:00,
2013-04-24 00:50:00,41.1,39.5,30.17,NE,34,3.0,12.0,94,0.01,,SKC,0.01,VWS V13.01,2013-04-24 04:50:00,
2013-04-24 00:51:00,41.1,39.5,30.17,NE,37,7.0,12.0,94,0.01,,SKC,0.01,VWS V13.01,2013-04-24 04:51:00,
2013-04-24 00:52:00,41.1,39.5,30.17,NE,46,10.0,12.0,94,0.01,,SKC,0.01,VWS V13.01,2013-04-24 04:52:00,
2013-04-24 00:53:00,41.1,39.5,30.17,NE,45,5.0,8.0,94,0.00,,SKC,0.00,VWS V13.01,2013-04-24 04:53:00,
2013-04-24 00:54:00,41.0,39.4,30.16,ENE,76,5.0,12.0,94,0.01,,SKC,0.01,VWS V13.01,2013-04-24 04:54:00,
2013-04-24 00:55:00,41.0,39.4,30.16,North,360,4.0,12.0,94,0.01,,SKC,0.01,VWS V13.01,2013-04-24 04:55:00,
2013-04-24 00:56:00,41.0,39.4,30.16,ENE,57,2.0,12.0,94,0.01,,SKC,0.01,VWS V13.01,2013-04-24 04:56:00,
2013-04-24 00:57:00,41.0,39.4,30.16,NE,56,9.0,12.0,94,0.01,,SKC,0.01,VWS V13.01,2013-04-24 04:57:00,
2013-04-24 00:58:00,41.1,39.5,30.17,NE,36,3.0,9.0,94,0.01,,SKC,0.01,VWS V13.01,2013-04-24 04:58:00,
2013-04-24 00:59:00,41.0,39.4,30.16,NNE,25,2.0,12.0,94,0.01,,SKC,0.01,VWS V13.01,2013-04-24 04:59:00,
2013-04-24 01:00:00,41.0,39.4,30.16,NE,49,3.0,12.0,94,0.01,,SKC,0.01,VWS V13.01,2013-04-24 05:00:00,
2013-04-24 01:01:00,41.0,39.4,30.16,North,10,2.0,3.0,94,0.01,,SKC,0.01,VWS V13.01,2013-04-24 05:01:00,
2013-04-24 01:02:00,41.0,39.4,30.16,North,355,7.0,11.0,94,0.01,,SKC,0.01,VWS V13.01,2013-04-24 05:02:00,
2013-04-24 01:03:00,41.1,39.5,30.17,NE,52,5.0,12.0,94,0.01,,SKC,0.01,VWS V13.01,2013-04-24 05:03:00,
2013-04-24 01:04:00,41.0,39.4,30.16,NE,46,6.0,11.0,94,0.01,,SKC,0.01,VWS V13.01,2013-04-24 05:04:00,
2013-04-24 01:05:00,41.0,40.7,30.16,ENE,59,4.0,11.0,99,0.01,,SKC,0.01,VWS V13.01,2013-04-24 05:05:00,
2013-04-24 01:06:00,41.0,39.4,30.15,NE,36,2.0,11.0,94,0.01,,SKC,0.01,VWS V13.01,2013-04-24 05:06:00,
2013-04-24 01:07:00,41.0,39.4,30.15,NE,53,4.0,11.0,94,0.01,,SKC,0.01,VWS V13.01,2013-04-24 05:07:00,
2013-04-24 01:08:00,41.0,39.4,30.16,NE,41,3.0,12.0,94,0.01,,SKC,0.01,VWS V13.01,2013-04-24 05:08:00,
2013-04-24 01:09:00,41.0,39.4,30.15,North,5,7.0,11.0,94,0.01,,SKC,0.01,VWS V13.01,2013-04-24 05:09:00,
2013-04-24 01:10:00,41.0,41.0,30.15,NE,52,6.0,11.0,100,0.01,,SKC,0.01,VWS V13.01,2013-04-24 05:10:00,
2013-04-24 01:11:00,41.0,39.4,30.15,NNE,16,3.0,11.0,94,0.01,,SKC,0.01,VWS V13.01,2013-04-24 05:11:00,
2013-04-24 01:12:00,41.0,39.4,30.15,NE,37,3.0,11.0,94,0.01,,SKC,0.01,VWS V13.01,2013-04-24 05:12:00,
2013-04-24 01:13:00,41.0,39.4,30.16,NE,44,3.0,11.0,94,0.01,,SKC,0.01,VWS V13.01,2013-04-24 05:13:00,
2013-04-24 01:18:00,41.0,41.0,30.15,NNE,19,4.0,11.0,100,0.01,,SKC,0.01,VWS V13.01,2013-04-24 05:18:00,
2013-04-24 01:30:00,41.1,39.5,30.13,NE,45,4.0,12.0,94,0.01,,SKC,0.01,VWS V13.01,2013-04-24 05:30:00,
2013-04-24 02:00:00,41.3,39.7,30.10,NE,45,5.0,13.0,94,0.01,,SKC,0.01,VWS V13.01,2013-04-24 06:00:00,
2013-04-24 02:30:00,41.6,40.0,30.07,NE,45,4.0,12.0,94,0.00,,SKC,0.01,VWS V13.01,2013-04-24 06:30:00,
2013-04-24 03:00:00,41.8,40.5,30.05,NE,45,5.0,14.0,95,0.00,,SKC,0.01,VWS V13.01,2013-04-24 07:00:00,
2013-04-24 03:30:00,41.9,40.6,30.03,NE,45,5.0,14.0,95,0.00,,SKC,0.01,VWS V13.01,2013-04-24 07:30:00,
2013-04-24 04:00:00,42.0,40.7,30.02,NE,45,5.0,15.0,95,0.00,,SKC,0.01,VWS V13.01,2013-04-24 08:00:00,
2013-04-24 04:30:00,42.0,40.7,30.00,NE,45,4.0,13.0,95,0.00,,SKC,0.01,VWS V13.01,2013-04-24 08:30:00,
2013-04-24 05:00:00,41.9,40.6,30.00,NE,45,5.0,12.0,95,0.00,,SKC,0.01,VWS V13.01,2013-04-24 09:00:00,
2013-04-24 05:30:00,41.9,40.6,29.99,NE,45,5.0,14.0,95,0.01,,SKC,0.02,VWS V13.01,2013-04-24 09:30:00,
2013-04-24 06:00:00,42.0,40.7,29.98,NE,45,5.0,14.0,95,0.02,,SKC,0.03,VWS V13.01,2013-04-24 10:00:00,
2013-04-24 06:30:00,42.1,40.8,29.98,NE,45,6.0,16.0,95,0.03,,SKC,0.04,VWS V13.01,2013-04-24 10:30:00,
2013-04-24 07:00:00,42.4,41.1,29.97,NNE,22,5.0,13.0,95,0.02,,SKC,0.04,VWS V13.01,2013-04-24 11:00:00,
2013-04-24 07:30:00,42.7,41.4,29.96,NE,45,6.0,16.0,95,0.01,,SKC,0.04,VWS V13.01,2013-04-24 11:30:00,
2013-04-24 08:00:00,43.2,41.9,29.96,NE,45,5.0,15.0,95,0.00,,SKC,0.04,VWS V13.01,2013-04-24 12:00:00,
2013-04-24 08:30:00,43.6,42.3,29.96,NE,45,5.0,16.0,95,0.00,,SKC,0.04,VWS V13.01,2013-04-24 12:30:00,
2013-04-24 08:36:00,43.6,42.3,29.96,NE,45,5.0,16.0,95,0.00,,SKC,0.04,VWS V13.01,2013-04-24 12:36:00,
2013-04-24 08:37:00,43.8,42.5,29.95,NNW,341,2.0,3.0,95,0.00,,SKC,0.04,VWS V13.01,2013-04-24 12:37:00,
2013-04-24 08:38:00,43.9,42.6,29.95,NNE,17,6.0,6.0,95,0.00,,SKC,0.04,VWS V13.01,2013-04-24 12:38:00,
2013-04-24 08:39:00,43.9,42.6,29.95,NE,49,5.0,9.0,95,0.00,,SKC,0.04,VWS V13.01,2013-04-24 12:39:00,
2013-04-24 08:40:00,43.9,42.6,29.95,NNE,17,3.0,9.0,95,0.00,,SKC,0.04,VWS V13.01,2013-04-24 12:40:00,
2013-04-24 08:41:00,43.9,42.6,29.95,NE,45,6.0,9.0,95,0.00,,SKC,0.04,VWS V13.01,2013-04-24 12:41:00,
2013-04-24 08:42:00,44.0,42.4,29.95,NE,40,9.0,9.0,94,0.00,,SKC,0.04,VWS V13.01,2013-04-24 12:42:00,
2013-04-24 08:43:00,44.0,42.4,29.95,NE,39,6.0,9.0,94,0.00,,SKC,0.04,VWS V13.01,2013-04-24 12:43:00,
2013-04-24 08:44:00,44.0,42.4,29.95,NW,326,2.0,12.0,94,0.00,,SKC,0.04,VWS V13.01,2013-04-24 12:44:00,
2013-04-24 08:45:00,44.0,42.4,29.95,NNW,337,3.0,12.0,94,0.00,,SKC,0.04,VWS V13.01,2013-04-24 12:45:00,
2013-04-24 08:46:00,44.0,42.4,29.95,North,11,3.0,12.0,94,0.00,,SKC,0.04,VWS V13.01,2013-04-24 12:46:00,
2013-04-24 08:47:00,44.0,42.4,29.95,NNE,26,4.0,12.0,94,0.00,,SKC,0.04,VWS V13.01,2013-04-24 12:47:00,
2013-04-24 08:48:00,44.0,42.4,29.95,NE,38,9.0,12.0,94,0.00,,SKC,0.04,VWS V13.01,2013-04-24 12:48:00,
2013-04-24 08:49:00,44.0,42.4,29.95,NE,36,10.0,12.0,94,0.00,,SKC,0.04,VWS V13.01,2013-04-24 12:49:00,
2013-04-24 08:50:00,44.0,42.4,29.95,ENE,61,9.0,12.0,94,0.00,,SKC,0.04,VWS V13.01,2013-04-24 12:50:00,
2013-04-24 08:51:00,44.0,42.4,29.95,North,360,6.0,12.0,94,0.00,,SKC,0.04,VWS V13.01,2013-04-24 12:51:00,
2013-04-24 08:52:00,44.0,42.4,29.95,North,355,2.0,12.0,94,0.00,,SKC,0.04,VWS V13.01,2013-04-24 12:52:00,
2013-04-24 08:53:00,44.0,42.4,29.95,NE,41,6.0,13.0,94,0.00,,SKC,0.04,VWS V13.01,2013-04-24 12:53:00,
2013-04-24 08:54:00,44.1,42.5,29.95,NE,37,2.0,13.0,94,0.00,,SKC,0.04,VWS V13.01,2013-04-24 12:54:00,
2013-04-24 08:55:00,44.1,42.5,29.95,NE,47,8.0,13.0,94,0.00,,SKC,0.04,VWS V13.01,2013-04-24 12:55:00,
2013-04-24 08:56:00,44.1,42.5,29.95,NE,40,6.0,13.0,94,0.00,,SKC,0.04,VWS V13.01,2013-04-24 12:56:00,
2013-04-24 08:57:00,44.1,42.5,29.95,North,360,6.0,13.0,94,0.00,,SKC,0.04,VWS V13.01,2013-04-24 12:57:00,
2013-04-24 08:58:00,44.1,42.5,29.95,NE,48,6.0,13.0,94,0.00,,SKC,0.04,VWS V13.01,2013-04-24 12:58:00,
2013-04-24 08:59:00,44.1,42.5,29.95,NE,52,5.0,13.0,94,0.00,,SKC,0.04,VWS V13.01,2013-04-24 12:59:00,
2013-04-24 09:00:00,44.1,42.5,29.95,North,360,4.0,13.0,94,0.00,,SKC,0.04,VWS V13.01,2013-04-24 13:00:00,
2013-04-24 09:01:00,44.1,42.5,29.95,NNE,29,5.0,6.0,94,0.00,,SKC,0.04,VWS V13.01,2013-04-24 13:01:00,
2013-04-24 09:02:00,44.2,42.6,29.95,ENE,60,9.0,10.0,94,0.00,,SKC,0.04,VWS V13.01,2013-04-24 13:02:00,
2013-04-24 09:03:00,44.2,42.6,29.94,NNE,27,2.0,10.0,94,0.00,,SKC,0.04,VWS V13.01,2013-04-24 13:03:00,
2013-04-24 09:04:00,44.2,42.6,29.94,North,360,9.0,10.0,94,0.00,,SKC,0.04,VWS V13.01,2013-04-24 13:04:00,
2013-04-24 09:05:00,44.2,42.6,29.94,NE,36,9.0,10.0,94,0.00,,SKC,0.04,VWS V13.01,2013-04-24 13:05:00,
2013-04-24 09:06:00,44.2,42.6,29.94,NNE,17,2.0,10.0,94,0.00,,SKC,0.04,VWS V13.01,2013-04-24 13:06:00,
2013-04-24 09:07:00,44.3,42.7,29.94,NW,322,7.0,12.0,94,0.00,,SKC,0.04,VWS V13.01,2013-04-24 13:07:00,
2013-04-24 09:08:00,44.3,42.7,29.94,NNE,21,5.0,12.0,94,0.00,,SKC,0.04,VWS V13.01,2013-04-24 13:08:00,
2013-04-24 09:09:00,44.3,42.7,29.94,NNW,348,10.0,13.0,94,0.00,,SKC,0.04,VWS V13.01,2013-04-24 13:09:00,
2013-04-24 09:10:00,44.3,42.7,29.94,NNE,30,0.0,13.0,94,0.00,,SKC,0.04,VWS V13.01,2013-04-24 13:10:00,
2013-04-24 09:11:00,44.3,42.7,29.94,NNE,18,11.0,13.0,94,0.00,,SKC,0.04,VWS V13.01,2013-04-24 13:11:00,
2013-04-24 09:12:00,44.4,42.8,29.94,NNE,14,4.0,13.0,94,0.00,,SKC,0.04,VWS V13.01,2013-04-24 13:12:00,
2013-04-24 09:13:00,44.4,42.8,29.94,ENE,68,8.0,13.0,94,0.00,,SKC,0.04,VWS V13.01,2013-04-24 13:13:00,
2013-04-24 09:14:00,44.4,42.8,29.95,North,360,5.0,13.0,94,0.00,,SKC,0.04,VWS V13.01,2013-04-24 13:14:00,
2013-04-24 09:15:00,44.4,42.8,29.95,NE,36,5.0,13.0,94,0.00,,SKC,0.04,VWS V13.01,2013-04-24 13:15:00,
2013-04-24 09:16:00,44.4,42.8,29.94,North,5,5.0,13.0,94,0.00,,SKC,0.04,VWS V13.01,2013-04-24 13:16:00,
2013-04-24 09:17:00,44.5,42.9,29.94,NNW,348,4.0,13.0,94,0.00,,SKC,0.04,VWS V13.01,2013-04-24 13:17:00,
2013-04-24 09:18:00,44.5,42.9,29.94,NE,34,6.0,13.0,94,0.00,,SKC,0.04,VWS V13.01,2013-04-24 13:18:00,
2013-04-24 09:19:00,44.5,42.9,29.95,NNE,15,2.0,13.0,94,0.00,,SKC,0.04,VWS V13.01,2013-04-24 13:19:00,
2013-04-24 09:20:00,44.6,43.0,29.94,NNW,346,4.0,13.0,94,0.00,,SKC,0.04,VWS V13.01,2013-04-24 13:20:00,
2013-04-24 09:21:00,44.6,43.0,29.94,NE,36,4.0,13.0,94,0.00,,SKC,0.04,VWS V13.01,2013-04-24 13:21:00,
2013-04-24 09:22:00,44.6,43.0,29.94,NNE,14,4.0,13.0,94,0.00,,SKC,0.04,VWS V13.01,2013-04-24 13:22:00,
2013-04-24 09:23:00,44.6,43.0,29.94,NE,36,9.0,13.0,94,0.00,,SKC,0.04,VWS V13.01,2013-04-24 13:23:00,
2013-04-24 09:24:00,44.5,42.9,29.95,ENE,57,5.0,14.0,94,0.00,,SKC,0.04,VWS V13.01,2013-04-24 13:24:00,
2013-04-24 09:25:00,44.5,42.9,29.94,ENE,59,9.0,14.0,94,0.00,,SKC,0.04,VWS V13.01,2013-04-24 13:25:00,
2013-04-24 09:26:00,44.5,42.9,29.94,NNE,28,4.0,14.0,94,0.00,,SKC,0.04,VWS V13.01,2013-04-24 13:26:00,
2013-04-24 09:27:00,44.6,43.0,29.94,North,5,4.0,14.0,94,0.00,,SKC,0.04,VWS V13.01,2013-04-24 13:27:00,
2013-04-24 09:28:00,44.6,43.0,29.94,North,355,5.0,14.0,94,0.00,,SKC,0.04,VWS V13.01,2013-04-24 13:28:00,
2013-04-24 09:29:00,44.6,43.0,29.94,NNW,348,5.0,14.0,94,0.00,,SKC,0.04,VWS V13.01,2013-04-24 13:29:00,
2013-04-24 09:30:00,44.6,43.0,29.94,NE,49,4.0,14.0,94,0.00,,SKC,0.04,VWS V13.01,2013-04-24 13:30:00,
2013-04-24 09:31:00,44.6,43.0,29.95,North,350,5.0,7.0,94,0.01,,SKC,0.05,VWS V13.01,2013-04-24 13:31:00,
2013-04-24 09:32:00,44.6,43.0,29.94,North,360,4.0,11.0,94,0.01,,SKC,0.05,VWS V13.01,2013-04-24 13:32:00,
2013-04-24 09:33:00,44.6,43.0,29.95,NE,47,5.0,11.0,94,0.01,,SKC,0.05,VWS V13.01,2013-04-24 13:33:00,
2013-04-24 09:34:00,44.6,43.0,29.94,NE,38,2.0,11.0,94,0.01,,SKC,0.05,VWS V13.01,2013-04-24 13:34:00,
2013-04-24 09:35:00,44.6,43.0,29.95,NE,44,5.0,11.0,94,0.01,,SKC,0.05,VWS V13.01,2013-04-24 13:35:00,
2013-04-24 09:36:00,44.6,43.0,29.94,NW,314,9.0,13.0,94,0.01,,SKC,0.05,VWS V13.01,2013-04-24 13:36:00,
2013-04-24 09:37:00,44.6,43.0,29.95,NE,49,9.0,14.0,94,0.01,,SKC,0.05,VWS V13.01,2013-04-24 13:37:00,
2013-04-24 09:38:00,44.6,43.0,29.95,ENE,75,6.0,14.0,94,0.01,,SKC,0.05,VWS V13.01,2013-04-24 13:38:00,
2013-04-24 09:39:00,44.6,43.0,29.95,NNE,19,7.0,14.0,94,0.01,,SKC,0.05,VWS V13.01,2013-04-24 13:39:00,
2013-04-24 09:40:00,44.6,43.0,29.95,NE,50,10.0,14.0,94,0.01,,SKC,0.05,VWS V13.01,2013-04-24 13:40:00,
2013-04-24 09:41:00,44.6,43.0,29.95,North,5,5.0,14.0,94,0.01,,SKC,0.05,VWS V13.01,2013-04-24 13:41:00,
2013-04-24 09:42:00,44.7,43.1,29.95,NNW,345,2.0,14.0,94,0.01,,SKC,0.05,VWS V13.01,2013-04-24 13:42:00,
2013-04-24 09:43:00,44.7,43.1,29.95,NNW,345,6.0,14.0,94,0.01,,SKC,0.05,VWS V13.01,2013-04-24 13:43:00,
2013-04-24 09:44:00,44.7,43.1,29.95,NE,39,2.0,14.0,94,0.01,,SKC,0.05,VWS V13.01,2013-04-24 13:44:00,
2013-04-24 09:45:00,44.7,43.1,29.95,NNE,32,2.0,14.0,94,0.01,,SKC,0.05,VWS V13.01,2013-04-24 13:45:00,
2013-04-24 09:46:00,44.7,43.1,29.95,NNE,30,4.0,14.0,94,0.01,,SKC,0.05,VWS V13.01,2013-04-24 13:46:00,
2013-04-24 09:47:00,44.7,43.1,29.95,NNE,13,2.0,14.0,94,0.01,,SKC,0.05,VWS V13.01,2013-04-24 13:47:00,
2013-04-24 09:48:00,44.7,43.1,29.95,NNE,19,4.0,14.0,94,0.01,,SKC,0.05,VWS V13.01,2013-04-24 13:48:00,
2013-04-24 09:49:00,44.7,43.1,29.95,NNE,23,6.0,14.0,94,0.01,,SKC,0.05,VWS V13.01,2013-04-24 13:49:00,
2013-04-24 09:50:00,44.8,43.2,29.95,NE,42,3.0,14.0,94,0.01,,SKC,0.05,VWS V13.01,2013-04-24 13:50:00,
2013-04-24 09:51:00,44.8,43.2,29.95,North,360,7.0,14.0,94,0.01,,SKC,0.05,VWS V13.01,2013-04-24 13:51:00,
2013-04-24 09:52:00,44.8,43.2,29.95,NE,34,2.0,14.0,94,0.01,,SKC,0.05,VWS V13.01,2013-04-24 13:52:00,
2013-04-24 09:53:00,44.8,43.2,29.94,NNW,327,4.0,14.0,94,0.01,,SKC,0.05,VWS V13.01,2013-04-24 13:53:00,
2013-04-24 09:54:00,44.8,43.2,29.94,North,360,7.0,14.0,94,0.01,,SKC,0.05,VWS V13.01,2013-04-24 13:54:00,
2013-04-24 09:55:00,44.8,43.2,29.94,NE,37,4.0,14.0,94,0.01,,SKC,0.05,VWS V13.01,2013-04-24 13:55:00,
2013-04-24 09:56:00,44.8,43.2,29.94,NNE,26,3.0,14.0,94,0.01,,SKC,0.05,VWS V13.01,2013-04-24 13:56:00,
2013-04-24 09:57:00,44.9,43.3,29.94,NE,37,5.0,14.0,94,0.01,,SKC,0.05,VWS V13.01,2013-04-24 13:57:00,
2013-04-24 09:58:00,44.9,43.3,29.94,NNE,24,3.0,14.0,94,0.01,,SKC,0.05,VWS V13.01,2013-04-24 13:58:00,
2013-04-24 09:59:00,44.9,43.3,29.94,NE,46,5.0,14.0,94,0.01,,SKC,0.05,VWS V13.01,2013-04-24 13:59:00,
2013-04-24 10:00:00,45.0,43.4,29.94,NE,46,4.0,14.0,94,0.01,,SKC,0.05,VWS V13.01,2013-04-24 14:00:00,
2013-04-24 10:01:00,45.0,43.4,29.94,NE,51,4.0,6.0,94,0.01,,SKC,0.05,VWS V13.01,2013-04-24 14:01:00,
2013-04-24 10:02:00,45.0,43.4,29.94,NNE,29,4.0,6.0,94,0.01,,SKC,0.05,VWS V13.01,2013-04-24 14:02:00,
2013-04-24 10:03:00,45.0,43.4,29.94,North,349,3.0,6.0,94,0.01,,SKC,0.05,VWS V13.01,2013-04-24 14:03:00,
2013-04-24 10:04:00,45.0,43.4,29.94,NNE,18,9.0,9.0,94,0.01,,SKC,0.05,VWS V13.01,2013-04-24 14:04:00,
2013-04-24 10:05:00,45.0,43.4,29.94,NE,40,2.0,9.0,94,0.01,,SKC,0.05,VWS V13.01,2013-04-24 14:05:00,
2013-04-24 10:06:00,45.0,43.4,29.94,NNE,15,4.0,9.0,94,0.01,,SKC,0.05,VWS V13.01,2013-04-24 14:06:00,
2013-04-24 10:07:00,45.1,43.5,29.93,NNE,24,6.0,9.0,94,0.01,,SKC,0.05,VWS V13.01,2013-04-24 14:07:00,
2013-04-24 10:08:00,45.1,43.5,29.93,ENE,61,3.0,9.0,94,0.01,,SKC,0.05,VWS V13.01,2013-04-24 14:08:00,
2013-04-24 10:09:00,45.1,43.5,29.93,NE,44,5.0,9.0,94,0.01,,SKC,0.05,VWS V13.01,2013-04-24 14:09:00,
2013-04-24 10:10:00,45.2,43.6,29.93,NNE,13,5.0,9.0,94,0.01,,SKC,0.05,VWS V13.01,2013-04-24 14:10:00,
2013-04-24 10:11:00,45.2,43.6,29.93,NNE,17,7.0,9.0,94,0.01,,SKC,0.05,VWS V13.01,2013-04-24 14:11:00,
2013-04-24 10:12:00,45.2,43.6,29.93,ENE,74,11.0,11.0,94,0.01,,SKC,0.05,VWS V13.01,2013-04-24 14:12:00,
2013-04-24 10:13:00,45.2,43.6,29.93,NNE,25,2.0,13.0,94,0.01,,SKC,0.05,VWS V13.01,2013-04-24 14:13:00,
2013-04-24 10:14:00,45.2,43.6,29.93,NNE,28,4.0,13.0,94,0.01,,SKC,0.05,VWS V13.01,2013-04-24 14:14:00,
2013-04-24 10:15:00,45.2,43.6,29.93,North,9,4.0,13.0,94,0.01,,SKC,0.05,VWS V13.01,2013-04-24 14:15:00,
2013-04-24 10:16:00,45.2,43.6,29.93,ENE,59,2.0,13.0,94,0.01,,SKC,0.05,VWS V13.01,2013-04-24 14:16:00,
2013-04-24 10:17:00,45.3,43.7,29.93,NNE,33,5.0,13.0,94,0.01,,SKC,0.05,VWS V13.01,2013-04-24 14:17:00,
2013-04-24 10:18:00,45.2,43.6,29.93,ENE,68,6.0,13.0,94,0.01,,SKC,0.05,VWS V13.01,2013-04-24 14:18:00,
2013-04-24 10:19:00,45.2,43.6,29.93,North,5,5.0,15.0,94,0.01,,SKC,0.05,VWS V13.01,2013-04-24 14:19:00,
2013-04-24 10:20:00,45.2,43.6,29.93,NNE,19,4.0,15.0,94,0.01,,SKC,0.05,VWS V13.01,2013-04-24 14:20:00,
2013-04-24 10:21:00,45.2,43.6,29.93,NNW,348,12.0,15.0,94,0.01,,SKC,0.05,VWS V13.01,2013-04-24 14:21:00,
2013-04-24 10:22:00,45.2,43.6,29.93,NE,44,2.0,15.0,94,0.01,,SKC,0.05,VWS V13.01,2013-04-24 14:22:00,
2013-04-24 10:23:00,45.2,43.6,29.93,North,360,4.0,15.0,94,0.01,,SKC,0.05,VWS V13.01,2013-04-24 14:23:00,
2013-04-24 10:24:00,45.3,43.7,29.93,NE,41,2.0,15.0,94,0.01,,SKC,0.05,VWS V13.01,2013-04-24 14:24:00,
2013-04-24 10:25:00,45.3,43.7,29.93,NE,36,7.0,15.0,94,0.01,,SKC,0.05,VWS V13.01,2013-04-24 14:25:00,
2013-04-24 10:26:00,45.4,43.8,29.93,North,360,4.0,15.0,94,0.01,,SKC,0.05,VWS V13.01,2013-04-24 14:26:00,
2013-04-24 10:27:00,45.4,43.8,29.93,NE,46,9.0,15.0,94,0.01,,SKC,0.05,VWS V13.01,2013-04-24 14:27:00,
2013-04-24 10:28:00,45.4,43.8,29.93,NE,39,9.0,15.0,94,0.01,,SKC,0.05,VWS V13.01,2013-04-24 14:28:00,
2013-04-24 10:29:00,45.4,43.8,29.93,NNE,17,5.0,15.0,94,0.01,,SKC,0.05,VWS V13.01,2013-04-24 14:29:00,
2013-04-24 10:30:00,45.4,43.8,29.92,NNE,15,2.0,15.0,94,0.01,,SKC,0.05,VWS V13.01,2013-04-24 14:30:00,
2013-04-24 10:31:00,45.4,43.8,29.92,NNE,24,2.0,3.0,94,0.01,,SKC,0.05,VWS V13.01,2013-04-24 14:31:00,
2013-04-24 10:32:00,45.4,43.8,29.92,NE,42,6.0,9.0,94,0.01,,SKC,0.05,VWS V13.01,2013-04-24 14:32:00,
2013-04-24 10:33:00,45.5,43.9,29.92,ENE,71,10.0,10.0,94,0.01,,SKC,0.05,VWS V13.01,2013-04-24 14:33:00,
2013-04-24 10:34:00,45.5,43.9,29.92,North,5,13.0,13.0,94,0.01,,SKC,0.05,VWS V13.01,2013-04-24 14:34:00,
2013-04-24 10:35:00,45.5,43.9,29.92,NE,48,11.0,13.0,94,0.01,,SKC,0.05,VWS V13.01,2013-04-24 14:35:00,
2013-04-24 10:36:00,45.5,43.9,29.92,NE,42,7.0,13.0,94,0.01,,SKC,0.05,VWS V13.01,2013-04-24 14:36:00,
2013-04-24 10:37:00,45.5,43.9,29.92,NE,34,4.0,16.0,94,0.01,,SKC,0.05,VWS V13.01,2013-04-24 14:37:00,
2013-04-24 10:38:00,45.5,43.9,29.92,NE,49,5.0,16.0,94,0.01,,SKC,0.05,VWS V13.01,2013-04-24 14:38:00,
2013-04-24 10:39:00,45.6,44.0,29.92,NW,315,2.0,16.0,94,0.01,,SKC,0.05,VWS V13.01,2013-04-24 14:39:00,
2013-04-24 10:40:00,45.7,44.1,29.92,ENE,60,1.0,16.0,94,0.01,,SKC,0.05,VWS V13.01,2013-04-24 14:40:00,
2013-04-24 10:41:00,45.8,44.2,29.92,NNE,26,5.0,16.0,94,0.01,,SKC,0.05,VWS V13.01,2013-04-24 14:41:00,
2013-04-24 10:42:00,45.8,44.2,29.92,ENE,65,9.0,16.0,94,0.01,,SKC,0.05,VWS V13.01,2013-04-24 14:42:00,
2013-04-24 10:43:00,45.8,44.2,29.92,NE,38,6.0,16.0,94,0.01,,SKC,0.05,VWS V13.01,2013-04-24 14:43:00,
2013-04-24 10:44:00,45.8,44.2,29.92,North,10,3.0,16.0,94,0.01,,SKC,0.05,VWS V13.01,2013-04-24 14:44:00,
2013-04-24 10:45:00,45.8,44.2,29.92,NNE,13,3.0,16.0,94,0.01,,SKC,0.05,VWS V13.01,2013-04-24 14:45:00,
2013-04-24 10:46:00,45.8,44.2,29.92,NNW,344,6.0,16.0,94,0.01,,SKC,0.05,VWS V13.01,2013-04-24 14:46:00,
2013-04-24 10:47:00,45.9,44.3,29.92,NNE,32,2.0,16.0,94,0.01,,SKC,0.05,VWS V13.01,2013-04-24 14:47:00,
2013-04-24 10:48:00,45.9,44.3,29.92,NE,42,4.0,16.0,94,0.01,,SKC,0.05,VWS V13.01,2013-04-24 14:48:00,
2013-04-24 10:49:00,46.0,44.4,29.92,North,351,6.0,16.0,94,0.01,,SKC,0.05,VWS V13.01,2013-04-24 14:49:00,
2013-04-24 10:50:00,46.0,44.4,29.92,NNE,30,5.0,16.0,94,0.01,,SKC,0.05,VWS V13.01,2013-04-24 14:50:00,
2013-04-24 10:51:00,46.0,44.4,29.92,NNE,32,9.0,16.0,94,0.01,,SKC,0.05,VWS V13.01,2013-04-24 14:51:00,
2013-04-24 10:52:00,46.0,44.4,29.92,NNW,344,5.0,16.0,94,0.01,,SKC,0.05,VWS V13.01,2013-04-24 14:52:00,
2013-04-24 10:53:00,46.0,44.4,29.92,North,360,10.0,16.0,94,0.01,,SKC,0.05,VWS V13.01,2013-04-24 14:53:00,
2013-04-24 10:54:00,46.1,44.5,29.91,NNW,333,2.0,16.0,94,0.01,,SKC,0.05,VWS V13.01,2013-04-24 14:54:00,
2013-04-24 10:55:00,46.1,44.5,29.91,NNW,346,3.0,16.0,94,0.01,,SKC,0.05,VWS V13.01,2013-04-24 14:55:00,
2013-04-24 10:58:00,46.3,45.0,29.91,NE,37,6.0,16.0,95,0.01,,SKC,0.05,VWS V13.01,2013-04-24 14:58:00,
2013-04-24 10:59:00,46.3,45.0,29.91,NE,49,4.0,16.0,95,0.01,,SKC,0.05,VWS V13.01,2013-04-24 14:59:00,
2013-04-24 11:00:00,46.3,45.0,29.91,ENE,59,6.0,16.0,95,0.01,,SKC,0.05,VWS V13.01,2013-04-24 15:00:00,
2013-04-24 11:01:00,46.4,45.0,29.92,ENE,78,4.0,6.0,95,0.00,,SKC,0.05,VWS V13.01,2013-04-24 15:01:00,
2013-04-24 11:02:00,46.4,45.0,29.91,NE,34,8.0,11.0,95,0.00,,SKC,0.05,VWS V13.01,2013-04-24 15:02:00,
2013-04-24 11:03:00,46.4,44.8,29.91,NNE,13,3.0,11.0,94,0.00,,SKC,0.05,VWS V13.01,2013-04-24 15:03:00,
2013-04-24 11:04:00,46.4,44.8,29.91,North,360,3.0,11.0,94,0.00,,SKC,0.05,VWS V13.01,2013-04-24 15:04:00,
2013-04-24 11:05:00,46.5,44.9,29.91,North,360,11.0,11.0,94,0.00,,SKC,0.05,VWS V13.01,2013-04-24 15:05:00,
2013-04-24 11:06:00,46.5,44.9,29.91,NE,46,6.0,11.0,94,0.00,,SKC,0.05,VWS V13.01,2013-04-24 15:06:00,
2013-04-24 11:07:00,46.5,44.9,29.91,NNW,336,3.0,11.0,94,0.00,,SKC,0.05,VWS V13.01,2013-04-24 15:07:00,
2013-04-24 11:08:00,46.5,44.9,29.91,NE,36,3.0,11.0,94,0.00,,SKC,0.05,VWS V13.01,2013-04-24 15:08:00,
2013-04-24 11:09:00,46.6,45.0,29.91,NE,35,1.0,11.0,94,0.00,,SKC,0.05,VWS V13.01,2013-04-24 15:09:00,
2013-04-24 11:10:00,46.7,45.1,29.91,NNW,346,4.0,11.0,94,0.00,,SKC,0.05,VWS V13.01,2013-04-24 15:10:00,
2013-04-24 11:11:00,46.8,45.2,29.91,NNW,344,3.0,11.0,94,0.00,,SKC,0.05,VWS V13.01,2013-04-24 15:11:00,
2013-04-24 11:12:00,46.8,45.5,29.91,NE,40,4.0,11.0,95,0.00,,SKC,0.05,VWS V13.01,2013-04-24 15:12:00,
2013-04-24 11:13:00,46.9,45.5,29.91,NNW,344,3.0,11.0,95,0.00,,SKC,0.05,VWS V13.01,2013-04-24 15:13:00,
2013-04-24 11:14:00,46.9,45.3,29.91,NNE,13,6.0,11.0,94,0.00,,SKC,0.05,VWS V13.01,2013-04-24 15:14:00,
2013-04-24 11:15:00,46.9,45.3,29.91,NNW,336,4.0,11.0,94,0.00,,SKC,0.05,VWS V13.01,2013-04-24 15:15:00,
2013-04-24 11:16:00,47.0,45.4,29.91,NW,317,5.0,11.0,94,0.00,,SKC,0.05,VWS V13.01,2013-04-24 15:16:00,
2013-04-24 11:17:00,46.9,45.3,29.91,North,9,9.0,11.0,94,0.00,,SKC,0.05,VWS V13.01,2013-04-24 15:17:00,
2013-04-24 11:18:00,46.9,45.3,29.91,NE,53,4.0,11.0,94,0.00,,SKC,0.05,VWS V13.01,2013-04-24 15:18:00,
2013-04-24 11:19:00,46.9,45.3,29.91,NNE,16,4.0,11.0,94,0.00,,SKC,0.05,VWS V13.01,2013-04-24 15:19:00,
2013-04-24 11:20:00,46.9,45.3,29.91,NE,49,3.0,11.0,94,0.00,,SKC,0.05,VWS V13.01,2013-04-24 15:20:00,
2013-04-24 11:21:00,47.0,45.4,29.91,WNW,298,5.0,13.0,94,0.00,,SKC,0.05,VWS V13.01,2013-04-24 15:21:00,
2013-04-24 11:22:00,46.9,45.3,29.91,NNE,20,3.0,13.0,94,0.00,,SKC,0.05,VWS V13.01,2013-04-24 15:22:00,
2013-04-24 11:23:00,47.0,45.4,29.91,North,355,4.0,13.0,94,0.00,,SKC,0.05,VWS V13.01,2013-04-24 15:23:00,
2013-04-24 11:24:00,47.0,45.4,29.91,NNE,26,5.0,13.0,94,0.00,,SKC,0.05,VWS V13.01,2013-04-24 15:24:00,
2013-04-24 11:25:00,47.0,45.4,29.91,NE,44,6.0,13.0,94,0.00,,SKC,0.05,VWS V13.01,2013-04-24 15:25:00,
2013-04-24 11:26:00,47.1,45.5,29.91,North,360,3.0,13.0,94,0.00,,SKC,0.05,VWS V13.01,2013-04-24 15:26:00,
2013-04-24 11:27:00,47.2,45.6,29.90,NE,37,6.0,13.0,94,0.00,,SKC,0.05,VWS V13.01,2013-04-24 15:27:00,
2013-04-24 11:28:00,47.2,45.6,29.90,NE,46,2.0,13.0,94,0.00,,SKC,0.05,VWS V13.01,2013-04-24 15:28:00,
2013-04-24 11:29:00,47.4,45.8,29.90,NE,41,3.0,13.0,94,0.00,,SKC,0.05,VWS V13.01,2013-04-24 15:29:00,
2013-04-24 11:30:00,47.5,45.9,29.90,NNE,32,5.0,13.0,94,0.00,,SKC,0.05,VWS V13.01,2013-04-24 15:30:00,
2013-04-24 11:31:00,47.6,46.0,29.90,NNE,30,6.0,9.0,94,0.00,,SKC,0.05,VWS V13.01,2013-04-24 15:31:00,
2013-04-24 11:32:00,47.7,46.1,29.90,NE,42,5.0,13.0,94,0.00,,SKC,0.05,VWS V13.01,2013-04-24 15:32:00,
2013-04-24 11:33:00,47.9,46.3,29.90,East,82,9.0,13.0,94,0.00,,SKC,0.05,VWS V13.01,2013-04-24 15:33:00,
2013-04-24 11:34:00,48.0,46.4,29.90,NE,50,4.0,13.0,94,0.00,,SKC,0.05,VWS V13.01,2013-04-24 15:34:00,
2013-04-24 11:35:00,48.2,46.6,29.90,NNE,24,5.0,13.0,94,0.00,,SKC,0.05,VWS V13.01,2013-04-24 15:35:00,
2013-04-24 11:36:00,48.4,46.8,29.90,NNW,342,4.0,13.0,94,0.00,,SKC,0.05,VWS V13.01,2013-04-24 15:36:00,
2013-04-24 11:37:00,48.6,47.0,29.89,NNW,338,6.0,13.0,94,0.00,,SKC,0.05,VWS V13.01,2013-04-24 15:37:00,
2013-04-24 11:38:00,48.7,47.0,29.89,North,360,4.0,13.0,94,0.00,,SKC,0.05,VWS V13.01,2013-04-24 15:38:00,
2013-04-24 11:39:00,49.0,47.3,29.89,NE,42,3.0,13.0,94,0.00,,SKC,0.05,VWS V13.01,2013-04-24 15:39:00,
2013-04-24 11:40:00,49.1,47.5,29.90,NE,42,4.0,13.0,94,0.00,,SKC,0.05,VWS V13.01,2013-04-24 15:40:00,
2013-04-24 11:41:00,49.2,47.5,29.89,NW,317,3.0,13.0,94,0.00,,SKC,0.05,VWS V13.01,2013-04-24 15:41:00,
2013-04-24 11:42:00,49.4,47.8,29.89,North,360,4.0,13.0,94,0.00,,SKC,0.05,VWS V13.01,2013-04-24 15:42:00,
2013-04-24 11:43:00,49.5,47.6,29.90,North,360,4.0,13.0,93,0.00,,SKC,0.05,VWS V13.01,2013-04-24 15:43:00,
2013-04-24 11:44:00,49.7,47.8,29.89,NNE,28,5.0,13.0,93,0.00,,SKC,0.05,VWS V13.01,2013-04-24 15:44:00,
2013-04-24 11:45:00,49.8,47.9,29.89,NE,35,5.0,13.0,93,0.00,,SKC,0.05,VWS V13.01,2013-04-24 15:45:00,
2013-04-24 11:46:00,50.0,48.1,29.89,NNE,26,4.0,13.0,93,0.00,,SKC,0.05,VWS V13.01,2013-04-24 15:46:00,
2013-04-24 11:47:00,50.1,48.2,29.89,North,355,4.0,13.0,93,0.00,,SKC,0.05,VWS V13.01,2013-04-24 15:47:00,
2013-04-24 11:48:00,50.2,48.3,29.89,NE,34,10.0,13.0,93,0.00,,SKC,0.05,VWS V13.01,2013-04-24 15:48:00,
2013-04-24 11:49:00,50.2,48.0,29.89,NE,46,7.0,13.0,92,0.00,,SKC,0.05,VWS V13.01,2013-04-24 15:49:00,
2013-04-24 11:50:00,50.2,48.0,29.89,NNW,331,4.0,13.0,92,0.00,,SKC,0.05,VWS V13.01,2013-04-24 15:50:00,
2013-04-24 11:51:00,50.1,47.9,29.89,NE,44,5.0,13.0,92,0.00,,SKC,0.05,VWS V13.01,2013-04-24 15:51:00,
2013-04-24 11:52:00,50.1,47.9,29.89,NE,37,6.0,13.0,92,0.00,,SKC,0.05,VWS V13.01,2013-04-24 15:52:00,
2013-04-24 11:53:00,50.1,47.6,29.89,NE,37,6.0,13.0,91,0.00,,SKC,0.05,VWS V13.01,2013-04-24 15:53:00,
2013-04-24 11:54:00,50.1,47.9,29.89,NE,44,5.0,13.0,92,0.00,,SKC,0.05,VWS V13.01,2013-04-24 15:54:00,
2013-04-24 11:55:00,50.1,47.6,29.89,NE,41,5.0,13.0,91,0.00,,SKC,0.05,VWS V13.01,2013-04-24 15:55:00,
2013-04-24 11:56:00,50.2,47.7,29.89,ENE,61,6.0,13.0,91,0.00,,SKC,0.05,VWS V13.01,2013-04-24 15:56:00,
2013-04-24 11:57:00,50.2,47.7,29.89,WSW,256,9.0,13.0,91,0.00,,SKC,0.05,VWS V13.01,2013-04-24 15:57:00,
2013-04-24 11:58:00,50.1,47.6,29.88,NNE,32,12.0,13.0,91,0.00,,SKC,0.05,VWS V13.01,2013-04-24 15:58:00,
2013-04-24 11:59:00,50.0,47.5,29.89,NE,37,5.0,13.0,91,0.00,,SKC,0.05,VWS V13.01,2013-04-24 15:59:00,
2013-04-24 12:00:00,50.0,47.2,29.88,NNW,345,6.0,14.0,90,0.00,,SKC,0.05,VWS V13.01,2013-04-24 16:00:00,
2013-04-24 12:01:00,49.9,47.1,29.88,ENE,63,11.0,11.0,90,0.00,,SKC,0.05,VWS V13.01,2013-04-24 16:01:00,
2013-04-24 12:02:00,49.8,47.0,29.88,NNE,24,5.0,13.0,90,0.00,,SKC,0.05,VWS V13.01,2013-04-24 16:02:00,
2013-04-24 12:03:00,49.8,47.0,29.88,NE,36,3.0,13.0,90,0.00,,SKC,0.05,VWS V13.01,2013-04-24 16:03:00,
2013-04-24 12:04:00,49.8,47.0,29.88,NNE,30,7.0,13.0,90,0.00,,SKC,0.05,VWS V13.01,2013-04-24 16:04:00,
2013-04-24 12:05:00,49.8,47.0,29.88,NNE,24,5.0,14.0,90,0.00,,SKC,0.05,VWS V13.01,2013-04-24 16:05:00,
2013-04-24 12:06:00,49.8,47.0,29.88,North,360,5.0,14.0,90,0.00,,SKC,0.05,VWS V13.01,2013-04-24 16:06:00,
2013-04-24 12:07:00,49.9,47.1,29.88,NNW,346,4.0,14.0,90,0.00,,SKC,0.05,VWS V13.01,2013-04-24 16:07:00,
2013-04-24 12:08:00,49.9,47.1,29.88,NNE,26,4.0,14.0,90,0.00,,SKC,0.05,VWS V13.01,2013-04-24 16:08:00,
2013-04-24 12:09:00,50.0,47.2,29.88,NE,53,14.0,16.0,90,0.00,,SKC,0.05,VWS V13.01,2013-04-24 16:09:00,
2013-04-24 12:10:00,50.0,46.9,29.88,North,355,6.0,16.0,89,0.00,,SKC,0.05,VWS V13.01,2013-04-24 16:10:00,
2013-04-24 12:11:00,50.0,46.9,29.88,NE,38,4.0,16.0,89,0.00,,SKC,0.05,VWS V13.01,2013-04-24 16:11:00,
2013-04-24 12:12:00,50.2,47.4,29.88,NE,50,6.0,16.0,90,0.00,,SKC,0.05,VWS V13.01,2013-04-24 16:12:00,
2013-04-24 12:13:00,50.2,47.4,29.88,ENE,60,12.0,16.0,90,0.00,,SKC,0.05,VWS V13.01,2013-04-24 16:13:00,
2013-04-24 12:14:00,50.3,47.2,29.88,ENE,69,4.0,16.0,89,0.00,,SKC,0.05,VWS V13.01,2013-04-24 16:14:00,
2013-04-24 12:15:00,50.4,47.3,29.88,ENE,60,6.0,16.0,89,0.00,,SKC,0.05,VWS V13.01,2013-04-24 16:15:00,
2013-04-24 12:16:00,50.5,47.4,29.88,ENE,68,6.0,16.0,89,0.00,,SKC,0.05,VWS V13.01,2013-04-24 16:16:00,
2013-04-24 12:17:00,50.6,47.5,29.88,NNW,337,6.0,16.0,89,0.00,,SKC,0.05,VWS V13.01,2013-04-24 16:17:00,
2013-04-24 12:18:00,50.8,47.7,29.88,NE,36,7.0,16.0,89,0.00,,SKC,0.05,VWS V13.01,2013-04-24 16:18:00,
2013-04-24 12:19:00,50.9,47.8,29.88,North,349,3.0,16.0,89,0.00,,SKC,0.05,VWS V13.01,2013-04-24 16:19:00,
2013-04-24 12:20:00,51.0,47.9,29.88,NNE,21,3.0,16.0,89,0.00,,SKC,0.05,VWS V13.01,2013-04-24 16:20:00,
2013-04-24 12:21:00,51.2,48.1,29.88,ENE,61,6.0,16.0,89,0.00,,SKC,0.05,VWS V13.01,2013-04-24 16:21:00,
2013-04-24 12:22:00,51.3,48.2,29.88,NNE,21,1.0,16.0,89,0.00,,SKC,0.05,VWS V13.01,2013-04-24 16:22:00,
2013-04-24 12:23:00,51.5,48.4,29.88,NE,43,6.0,16.0,89,0.00,,SKC,0.05,VWS V13.01,2013-04-24 16:23:00,
2013-04-24 12:24:00,51.6,48.5,29.87,NE,51,6.0,16.0,89,0.00,,SKC,0.05,VWS V13.01,2013-04-24 16:24:00,
2013-04-24 12:25:00,51.6,48.2,29.87,NNE,28,5.0,16.0,88,0.00,,SKC,0.05,VWS V13.01,2013-04-24 16:25:00,
2013-04-24 12:26:00,51.7,48.3,29.87,NE,46,2.0,16.0,88,0.00,,SKC,0.05,VWS V13.01,2013-04-24 16:26:00,
2013-04-24 12:27:00,51.8,48.4,29.87,NE,55,9.0,16.0,88,0.00,,SKC,0.05,VWS V13.01,2013-04-24 16:27:00,
2013-04-24 12:28:00,51.8,48.4,29.87,NE,42,5.0,16.0,88,0.00,,SKC,0.05,VWS V13.01,2013-04-24 16:28:00,
2013-04-24 12:29:00,51.8,48.1,29.87,NE,55,6.0,20.0,87,0.00,,SKC,0.05,VWS V13.01,2013-04-24 16:29:00,
2013-04-24 12:30:00,51.9,48.2,29.87,NE,39,4.0,20.0,87,0.00,,SKC,0.05,VWS V13.01,2013-04-24 16:30:00,
2013-04-24 12:31:00,52.0,48.3,29.87,NE,47,5.0,6.0,87,0.00,,SKC,0.05,VWS V13.01,2013-04-24 16:31:00,
2013-04-24 12:32:00,52.2,48.5,29.87,NE,37,4.0,8.0,87,0.00,,SKC,0.05,VWS V13.01,2013-04-24 16:32:00,
2013-04-24 12:33:00,52.3,48.5,29.87,NE,52,4.0,9.0,87,0.00,,SKC,0.05,VWS V13.01,2013-04-24 16:33:00,
2013-04-24 12:34:00,52.5,48.8,29.87,NE,48,7.0,9.0,87,0.00,,SKC,0.05,VWS V13.01,2013-04-24 16:34:00,
2013-04-24 12:35:00,52.6,48.5,29.87,ENE,63,11.0,11.0,86,0.00,,SKC,0.05,VWS V13.01,2013-04-24 16:35:00,
2013-04-24 12:36:00,52.7,48.6,29.87,ENE,57,4.0,11.0,86,0.00,,SKC,0.05,VWS V13.01,2013-04-24 16:36:00,
2013-04-24 12:37:00,52.8,48.7,29.87,NNE,23,4.0,12.0,86,0.00,,SKC,0.05,VWS V13.01,2013-04-24 16:37:00,
2013-04-24 12:38:00,52.8,48.4,29.86,NW,323,3.0,12.0,85,0.00,,SKC,0.05,VWS V13.01,2013-04-24 16:38:00,
2013-04-24 12:39:00,52.8,48.4,29.86,NE,35,13.0,17.0,85,0.00,,SKC,0.05,VWS V13.01,2013-04-24 16:39:00,
2013-04-24 12:40:00,52.7,48.3,29.86,NNE,17,3.0,17.0,85,0.00,,SKC,0.05,VWS V13.01,2013-04-24 16:40:00,
2013-04-24 12:41:00,52.5,47.8,29.86,NE,41,9.0,17.0,84,0.00,,SKC,0.05,VWS V13.01,2013-04-24 16:41:00,
2013-04-24 12:42:00,52.4,47.7,29.86,NNE,19,12.0,17.0,84,0.00,,SKC,0.05,VWS V13.01,2013-04-24 16:42:00,
2013-04-24 12:43:00,52.3,47.6,29.86,NE,49,7.0,17.0,84,0.00,,SKC,0.05,VWS V13.01,2013-04-24 16:43:00,
2013-04-24 12:44:00,52.2,47.5,29.86,NE,46,9.0,17.0,84,0.00,,SKC,0.05,VWS V13.01,2013-04-24 16:44:00,
2013-04-24 12:45:00,52.2,47.5,29.86,ENE,57,11.0,17.0,84,0.00,,SKC,0.05,VWS V13.01,2013-04-24 16:45:00,
2013-04-24 12:46:00,52.2,47.5,29.86,ENE,61,3.0,17.0,84,0.00,,SKC,0.05,VWS V13.01,2013-04-24 16:46:00,
2013-04-24 12:47:00,52.2,47.8,29.86,ENE,60,6.0,17.0,85,0.00,,SKC,0.05,VWS V13.01,2013-04-24 16:47:00,
2013-04-24 12:48:00,52.2,47.5,29.86,NE,36,5.0,17.0,84,0.00,,SKC,0.05,VWS V13.01,2013-04-24 16:48:00,
2013-04-24 12:49:00,52.3,47.9,29.86,NNE,28,5.0,17.0,85,0.00,,SKC,0.05,VWS V13.01,2013-04-24 16:49:00,
2013-04-24 12:50:00,52.3,47.6,29.85,ENE,57,9.0,17.0,84,0.00,,SKC,0.05,VWS V13.01,2013-04-24 16:50:00,
2013-04-24 12:51:00,52.3,47.6,29.85,NE,40,6.0,17.0,84,0.00,,SKC,0.05,VWS V13.01,2013-04-24 16:51:00,
2013-04-24 12:52:00,52.3,47.6,29.85,NNE,28,15.0,17.0,84,0.00,,SKC,0.05,VWS V13.01,2013-04-24 16:52:00,
2013-04-24 12:53:00,52.3,47.6,29.85,NNE,33,9.0,17.0,84,0.00,,SKC,0.05,VWS V13.01,2013-04-24 16:53:00,
2013-04-24 12:54:00,52.3,47.6,29.85,NE,36,6.0,17.0,84,0.00,,SKC,0.05,VWS V13.01,2013-04-24 16:54:00,
2013-04-24 12:55:00,52.3,47.6,29.85,ENE,57,9.0,17.0,84,0.00,,SKC,0.05,VWS V13.01,2013-04-24 16:55:00,
2013-04-24 12:56:00,52.4,47.7,29.85,NE,43,10.0,17.0,84,0.00,,SKC,0.05,VWS V13.01,2013-04-24 16:56:00,
2013-04-24 12:57:00,52.4,47.7,29.85,ENE,57,7.0,17.0,84,0.00,,SKC,0.05,VWS V13.01,2013-04-24 16:57:00,
2013-04-24 12:58:00,52.5,47.8,29.85,NNE,32,7.0,17.0,84,0.00,,SKC,0.05,VWS V13.01,2013-04-24 16:58:00,
2013-04-24 12:59:00,52.6,48.2,29.85,NE,48,7.0,17.0,85,0.00,,SKC,0.05,VWS V13.01,2013-04-24 16:59:00,
2013-04-24 13:00:00,52.8,48.4,29.85,North,11,3.0,17.0,85,0.00,,SKC,0.05,VWS V13.01,2013-04-24 17:00:00,
2013-04-24 13:01:00,53.1,48.7,29.85,NE,51,9.0,9.0,85,0.00,,SKC,0.05,VWS V13.01,2013-04-24 17:01:00,
2013-04-24 13:02:00,53.3,48.6,29.85,ENE,59,3.0,10.0,84,0.00,,SKC,0.05,VWS V13.01,2013-04-24 17:02:00,
2013-04-24 13:03:00,53.6,48.9,29.85,East,94,1.0,11.0,84,0.00,,SKC,0.05,VWS V13.01,2013-04-24 17:03:00,
2013-04-24 13:04:00,53.9,49.2,29.85,North,11,5.0,11.0,84,0.00,,SKC,0.05,VWS V13.01,2013-04-24 17:04:00,
2013-04-24 13:05:00,54.1,49.1,29.85,North,350,3.0,11.0,83,0.00,,SKC,0.05,VWS V13.01,2013-04-24 17:05:00,
2013-04-24 13:06:00,54.3,49.3,29.85,NE,40,8.0,11.0,83,0.00,,SKC,0.05,VWS V13.01,2013-04-24 17:06:00,
2013-04-24 13:07:00,54.4,49.0,29.85,NE,38,5.0,11.0,82,0.00,,SKC,0.05,VWS V13.01,2013-04-24 17:07:00,
2013-04-24 13:08:00,54.6,49.2,29.85,ENE,64,4.0,11.0,82,0.00,,SKC,0.05,VWS V13.01,2013-04-24 17:08:00,
2013-04-24 13:09:00,54.7,49.3,29.85,NNW,333,2.0,11.0,82,0.00,,SKC,0.05,VWS V13.01,2013-04-24 17:09:00,
2013-04-24 13:10:00,54.8,49.4,29.85,ENE,57,11.0,12.0,82,0.00,,SKC,0.05,VWS V13.01,2013-04-24 17:10:00,
2013-04-24 13:11:00,54.8,49.1,29.85,NNE,32,4.0,12.0,81,0.00,,SKC,0.05,VWS V13.01,2013-04-24 17:11:00,
2013-04-24 13:12:00,54.8,49.1,29.85,NE,53,2.0,12.0,81,0.00,,SKC,0.05,VWS V13.01,2013-04-24 17:12:00,
2013-04-24 13:13:00,54.9,49.2,29.85,NNE,33,14.0,14.0,81,0.00,,SKC,0.05,VWS V13.01,2013-04-24 17:13:00,
2013-04-24 13:14:00,54.9,48.9,29.85,NE,44,6.0,14.0,80,0.00,,SKC,0.05,VWS V13.01,2013-04-24 17:14:00,
2013-04-24 13:15:00,54.8,48.8,29.85,ENE,57,7.0,14.0,80,0.00,,SKC,0.05,VWS V13.01,2013-04-24 17:15:00,
2013-04-24 13:16:00,54.7,48.7,29.85,ENE,61,7.0,14.0,80,0.00,,SKC,0.05,VWS V13.01,2013-04-24 17:16:00,
2013-04-24 13:17:00,54.6,48.6,29.85,North,355,6.0,14.0,80,0.00,,SKC,0.05,VWS V13.01,2013-04-24 17:17:00,
2013-04-24 13:18:00,54.5,48.5,29.85,NNE,32,5.0,14.0,80,0.00,,SKC,0.05,VWS V13.01,2013-04-24 17:18:00,
2013-04-24 13:19:00,54.5,48.5,29.85,NE,42,10.0,14.0,80,0.00,,SKC,0.05,VWS V13.01,2013-04-24 17:19:00,
2013-04-24 13:20:00,54.5,48.8,29.85,NE,39,4.0,14.0,81,0.00,,SKC,0.05,VWS V13.01,2013-04-24 17:20:00,
2013-04-24 13:21:00,54.5,48.8,29.85,NE,44,5.0,14.0,81,0.00,,SKC,0.05,VWS V13.01,2013-04-24 17:21:00,
2013-04-24 13:22:00,54.5,48.8,29.85,NE,36,12.0,14.0,81,0.00,,SKC,0.05,VWS V13.01,2013-04-24 17:22:00,
2013-04-24 13:23:00,54.5,48.8,29.84,NNE,23,6.0,14.0,81,0.00,,SKC,0.05,VWS V13.01,2013-04-24 17:23:00,
2013-04-24 13:24:00,54.4,48.4,29.84,NNE,23,6.0,14.0,80,0.00,,SKC,0.05,VWS V13.01,2013-04-24 17:24:00,
2013-04-24 13:25:00,54.4,48.4,29.84,NE,42,8.0,14.0,80,0.00,,SKC,0.05,VWS V13.01,2013-04-24 17:25:00,
2013-04-24 13:26:00,54.4,48.7,29.84,NW,325,2.0,14.0,81,0.00,,SKC,0.05,VWS V13.01,2013-04-24 17:26:00,
2013-04-24 13:27:00,54.5,48.8,29.84,NE,34,10.0,14.0,81,0.00,,SKC,0.05,VWS V13.01,2013-04-24 17:27:00,
2013-04-24 13:28:00,54.6,48.9,29.84,NNE,33,4.0,14.0,81,0.00,,SKC,0.05,VWS V13.01,2013-04-24 17:28:00,
2013-04-24 13:29:00,54.7,49.0,29.84,NE,46,7.0,14.0,81,0.00,,SKC,0.05,VWS V13.01,2013-04-24 17:29:00,
2013-04-24 13:30:00,54.6,48.6,29.84,ENE,57,8.0,14.0,80,0.00,,SKC,0.05,VWS V13.01,2013-04-24 17:30:00,
2013-04-24 13:31:00,54.6,48.6,29.84,NE,44,11.0,11.0,80,0.00,,SKC,0.05,VWS V13.01,2013-04-24 17:31:00,
2013-04-24 13:32:00,54.5,48.5,29.84,North,5,3.0,12.0,80,0.00,,SKC,0.05,VWS V13.01,2013-04-24 17:32:00,
2013-04-24 13:33:00,54.5,48.5,29.84,NNE,17,6.0,12.0,80,0.00,,SKC,0.05,VWS V13.01,2013-04-24 17:33:00,
2013-04-24 13:34:00,54.5,48.1,29.84,NNE,26,2.0,12.0,79,0.00,,SKC,0.05,VWS V13.01,2013-04-24 17:34:00,
2013-04-24 13:35:00,54.4,48.4,29.84,NNE,17,4.0,12.0,80,0.00,,SKC,0.05,VWS V13.01,2013-04-24 17:35:00,
2013-04-24 13:36:00,54.4,48.4,29.84,NE,37,3.0,12.0,80,0.00,,SKC,0.05,VWS V13.01,2013-04-24 17:36:00,
2013-04-24 13:37:00,54.5,48.5,29.84,NNE,14,5.0,12.0,80,0.00,,SKC,0.05,VWS V13.01,2013-04-24 17:37:00,
2013-04-24 13:38:00,54.5,48.5,29.84,ENE,58,5.0,12.0,80,0.00,,SKC,0.05,VWS V13.01,2013-04-24 17:38:00,
2013-04-24 13:39:00,54.4,48.0,29.84,NE,53,7.0,13.0,79,0.00,,SKC,0.05,VWS V13.01,2013-04-24 17:39:00,
2013-04-24 13:40:00,54.4,48.4,29.84,North,11,2.0,13.0,80,0.00,,SKC,0.05,VWS V13.01,2013-04-24 17:40:00,
2013-04-24 13:41:00,54.4,48.4,29.84,ENE,63,6.0,13.0,80,0.00,,SKC,0.05,VWS V13.01,2013-04-24 17:41:00,
2013-04-24 13:42:00,54.3,48.3,29.84,NE,36,9.0,13.0,80,0.00,,SKC,0.05,VWS V13.01,2013-04-24 17:42:00,
2013-04-24 13:43:00,54.4,48.4,29.84,NE,52,7.0,13.0,80,0.00,,SKC,0.05,VWS V13.01,2013-04-24 17:43:00,
2013-04-24 13:44:00,54.5,48.5,29.83,NNE,32,3.0,13.0,80,0.00,,SKC,0.05,VWS V13.01,2013-04-24 17:44:00,
2013-04-24 13:45:00,54.6,48.6,29.84,NE,34,2.0,13.0,80,0.00,,SKC,0.05,VWS V13.01,2013-04-24 17:45:00,
2013-04-24 13:46:00,54.8,48.8,29.84,North,360,5.0,13.0,80,0.00,,SKC,0.05,VWS V13.01,2013-04-24 17:46:00,
2013-04-24 13:47:00,55.0,49.0,29.84,NNE,23,7.0,13.0,80,0.00,,SKC,0.05,VWS V13.01,2013-04-24 17:47:00,
2013-04-24 13:48:00,55.1,48.7,29.84,North,355,4.0,13.0,79,0.00,,SKC,0.05,VWS V13.01,2013-04-24 17:48:00,
2013-04-24 13:49:00,55.2,48.8,29.84,NNE,19,3.0,13.0,79,0.00,,SKC,0.05,VWS V13.01,2013-04-24 17:49:00,
2013-04-24 13:50:00,55.3,48.9,29.83,NNE,24,0.0,13.0,79,0.00,,SKC,0.05,VWS V13.01,2013-04-24 17:50:00,
2013-04-24 13:51:00,55.5,49.1,29.84,NNE,32,2.0,13.0,79,0.00,,SKC,0.05,VWS V13.01,2013-04-24 17:51:00,
2013-04-24 13:52:00,55.6,48.9,29.84,ENE,59,9.0,13.0,78,0.00,,SKC,0.05,VWS V13.01,2013-04-24 17:52:00,
2013-04-24 13:53:00,55.8,49.0,29.83,NNW,339,2.0,13.0,78,0.00,,SKC,0.05,VWS V13.01,2013-04-24 17:53:00,
2013-04-24 13:54:00,55.9,49.2,29.83,North,351,5.0,13.0,78,0.00,,SKC,0.05,VWS V13.01,2013-04-24 17:54:00,
2013-04-24 13:55:00,55.9,49.2,29.83,North,10,11.0,13.0,78,0.00,,SKC,0.05,VWS V13.01,2013-04-24 17:55:00,
2013-04-24 13:56:00,55.9,49.2,29.83,NE,40,5.0,13.0,78,0.00,,SKC,0.05,VWS V13.01,2013-04-24 17:56:00,
2013-04-24 13:57:00,55.9,49.2,29.83,North,355,2.0,13.0,78,0.00,,SKC,0.05,VWS V13.01,2013-04-24 17:57:00,
2013-04-24 13:58:00,56.0,49.2,29.83,North,360,5.0,13.0,78,0.00,,SKC,0.05,VWS V13.01,2013-04-24 17:58:00,
2013-04-24 13:59:00,56.2,49.1,29.83,NNE,24,2.0,13.0,77,0.00,,SKC,0.05,VWS V13.01,2013-04-24 17:59:00,
2013-04-24 14:00:00,56.3,49.2,29.84,North,355,3.0,13.0,77,0.00,,SKC,0.05,VWS V13.01,2013-04-24 18:00:00,
2013-04-24 14:01:00,56.4,49.3,29.84,NE,44,3.0,6.0,77,0.00,,SKC,0.05,VWS V13.01,2013-04-24 18:01:00,
2013-04-24 14:02:00,56.5,49.4,29.84,North,10,2.0,6.0,77,0.00,,SKC,0.05,VWS V13.01,2013-04-24 18:02:00,
2013-04-24 14:03:00,56.7,49.6,29.84,North,360,4.0,6.0,77,0.00,,SKC,0.05,VWS V13.01,2013-04-24 18:03:00,
2013-04-24 14:04:00,56.8,49.3,29.84,NNE,17,6.0,9.0,76,0.00,,SKC,0.05,VWS V13.01,2013-04-24 18:04:00,
2013-04-24 14:05:00,56.9,49.4,29.84,ENE,65,2.0,9.0,76,0.00,,SKC,0.05,VWS V13.01,2013-04-24 18:05:00,
2013-04-24 14:06:00,57.0,49.5,29.84,NNE,33,4.0,9.0,76,0.00,,SKC,0.05,VWS V13.01,2013-04-24 18:06:00,
2013-04-24 14:07:00,57.2,49.7,29.84,NE,36,1.0,9.0,76,0.00,,SKC,0.05,VWS V13.01,2013-04-24 18:07:00,
2013-04-24 14:08:00,57.3,49.8,29.84,North,11,3.0,9.0,76,0.00,,SKC,0.05,VWS V13.01,2013-04-24 18:08:00,
2013-04-24 14:09:00,57.5,49.7,29.83,ENE,76,3.0,9.0,75,0.00,,SKC,0.05,VWS V13.01,2013-04-24 18:09:00,
2013-04-24 14:10:00,57.6,50.1,29.84,NNE,33,3.0,9.0,76,0.00,,SKC,0.05,VWS V13.01,2013-04-24 18:10:00,
2013-04-24 14:11:00,57.6,49.4,29.83,North,10,4.0,9.0,74,0.00,,SKC,0.05,VWS V13.01,2013-04-24 18:11:00,
2013-04-24 14:12:00,57.5,49.3,29.83,North,355,5.0,9.0,74,0.00,,SKC,0.05,VWS V13.01,2013-04-24 18:12:00,
2013-04-24 14:13:00,57.4,49.5,29.83,NW,314,6.0,9.0,75,0.00,,SKC,0.05,VWS V13.01,2013-04-24 18:13:00,
2013-04-24 14:14:00,57.5,49.7,29.83,NE,45,3.0,9.0,75,0.00,,SKC,0.05,VWS V13.01,2013-04-24 18:14:00,
2013-04-24 14:15:00,57.5,49.3,29.83,NNE,33,3.0,11.0,74,0.00,,SKC,0.05,VWS V13.01,2013-04-24 18:15:00,
2013-04-24 14:16:00,57.5,49.7,29.83,East,79,4.0,11.0,75,0.00,,SKC,0.05,VWS V13.01,2013-04-24 18:16:00,
2013-04-24 14:17:00,57.5,49.7,29.83,North,10,4.0,11.0,75,0.00,,SKC,0.05,VWS V13.01,2013-04-24 18:17:00,
2013-04-24 14:18:00,57.6,49.8,29.83,NNW,342,9.0,12.0,75,0.00,,SKC,0.05,VWS V13.01,2013-04-24 18:18:00,
2013-04-24 14:19:00,57.7,49.5,29.83,NNE,16,4.0,12.0,74,0.00,,SKC,0.05,VWS V13.01,2013-04-24 18:19:00,
2013-04-24 14:20:00,57.7,49.5,29.83,NNE,22,7.0,12.0,74,0.00,,SKC,0.05,VWS V13.01,2013-04-24 18:20:00,
2013-04-24 14:21:00,57.7,49.5,29.83,NE,38,7.0,12.0,74,0.00,,SKC,0.05,VWS V13.01,2013-04-24 18:21:00,
2013-04-24 14:22:00,57.5,49.3,29.83,NE,34,9.0,12.0,74,0.00,,SKC,0.05,VWS V13.01,2013-04-24 18:22:00,
2013-04-24 14:23:00,57.4,49.5,29.83,NE,46,1.0,12.0,75,0.00,,SKC,0.05,VWS V13.01,2013-04-24 18:23:00,
2013-04-24 14:24:00,57.5,49.7,29.83,NNE,27,5.0,12.0,75,0.00,,SKC,0.05,VWS V13.01,2013-04-24 18:24:00,
2013-04-24 14:25:00,57.4,49.5,29.83,NE,38,0.0,12.0,75,0.00,,SKC,0.05,VWS V13.01,2013-04-24 18:25:00,
2013-04-24 14:26:00,57.3,49.5,29.83,NE,56,6.0,12.0,75,0.00,,SKC,0.05,VWS V13.01,2013-04-24 18:26:00,
2013-04-24 14:27:00,57.2,49.0,29.83,North,5,6.0,12.0,74,0.00,,SKC,0.05,VWS V13.01,2013-04-24 18:27:00,
2013-04-24 14:28:00,57.2,49.0,29.83,North,10,1.0,12.0,74,0.00,,SKC,0.05,VWS V13.01,2013-04-24 18:28:00,
2013-04-24 14:29:00,57.3,49.5,29.83,NE,34,2.0,12.0,75,0.00,,SKC,0.05,VWS V13.01,2013-04-24 18:29:00,
2013-04-24 14:30:00,57.3,49.1,29.82,NNE,26,1.0,12.0,74,0.00,,SKC,0.05,VWS V13.01,2013-04-24 18:30:00,
2013-04-24 14:31:00,57.4,49.2,29.82,ENE,66,5.0,5.0,74,0.00,,SKC,0.05,VWS V13.01,2013-04-24 18:31:00,
2013-04-24 14:32:00,57.4,49.2,29.82,NE,41,5.0,9.0,74,0.00,,SKC,0.05,VWS V13.01,2013-04-24 18:32:00,
2013-04-24 14:33:00,57.4,49.5,29.82,NE,56,3.0,9.0,75,0.00,,SKC,0.05,VWS V13.01,2013-04-24 18:33:00,
2013-04-24 14:34:00,57.4,49.5,29.82,NNE,13,4.0,9.0,75,0.00,,SKC,0.05,VWS V13.01,2013-04-24 18:34:00,
2013-04-24 14:35:00,57.6,49.8,29.82,NNE,18,3.0,10.0,75,0.00,,SKC,0.05,VWS V13.01,2013-04-24 18:35:00,
2013-04-24 14:36:00,57.7,49.8,29.82,North,350,5.0,10.0,75,0.00,,SKC,0.05,VWS V13.01,2013-04-24 18:36:00,
2013-04-24 14:37:00,57.9,50.0,29.82,NNE,31,5.0,10.0,75,0.00,,SKC,0.05,VWS V13.01,2013-04-24 18:37:00,
2013-04-24 14:38:00,58.1,49.9,29.82,NNE,18,2.0,10.0,74,0.00,,SKC,0.05,VWS V13.01,2013-04-24 18:38:00,
2013-04-24 14:39:00,58.3,50.1,29.82,NNE,23,2.0,10.0,74,0.00,,SKC,0.05,VWS V13.01,2013-04-24 18:39:00,
2013-04-24 14:40:00,58.5,50.2,29.82,NE,42,1.0,10.0,74,0.00,,SKC,0.05,VWS V13.01,2013-04-24 18:40:00,
2013-04-24 14:41:00,58.6,50.0,29.82,NNE,19,4.0,10.0,73,0.00,,SKC,0.05,VWS V13.01,2013-04-24 18:41:00,
2013-04-24 14:42:00,58.5,49.9,29.82,NNE,20,6.0,10.0,73,0.00,,SKC,0.05,VWS V13.01,2013-04-24 18:42:00,
2013-04-24 14:43:00,58.5,49.9,29.82,NNE,25,2.0,10.0,73,0.00,,SKC,0.05,VWS V13.01,2013-04-24 18:43:00,
2013-04-24 14:44:00,58.6,50.0,29.82,North,360,4.0,10.0,73,0.00,,SKC,0.05,VWS V13.01,2013-04-24 18:44:00,
2013-04-24 14:45:00,58.9,50.3,29.81,North,355,1.0,10.0,73,0.00,,SKC,0.05,VWS V13.01,2013-04-24 18:45:00,
2013-04-24 14:46:00,59.0,50.0,29.81,NE,35,3.0,10.0,72,0.00,,SKC,0.05,VWS V13.01,2013-04-24 18:46:00,
2013-04-24 14:47:00,59.0,50.0,29.81,NE,42,1.0,10.0,72,0.00,,SKC,0.05,VWS V13.01,2013-04-24 18:47:00,
2013-04-24 14:48:00,59.0,50.0,29.81,NE,34,5.0,10.0,72,0.00,,SKC,0.05,VWS V13.01,2013-04-24 18:48:00,
2013-04-24 14:49:00,59.0,50.0,29.81,NNE,26,3.0,10.0,72,0.00,,SKC,0.05,VWS V13.01,2013-04-24 18:49:00,
2013-04-24 14:50:00,59.0,50.0,29.81,NE,38,5.0,10.0,72,0.00,,SKC,0.05,VWS V13.01,2013-04-24 18:50:00,
2013-04-24 14:51:00,59.0,50.4,29.81,ENE,63,5.0,10.0,73,0.00,,SKC,0.05,VWS V13.01,2013-04-24 18:51:00,
2013-04-24 14:52:00,59.0,50.0,29.81,NNE,30,3.0,13.0,72,0.00,,SKC,0.05,VWS V13.01,2013-04-24 18:52:00,
2013-04-24 14:53:00,59.0,50.0,29.81,NE,36,5.0,13.0,72,0.00,,SKC,0.05,VWS V13.01,2013-04-24 18:53:00,
2013-04-24 14:54:00,59.0,50.0,29.81,NE,53,7.0,13.0,72,0.00,,SKC,0.05,VWS V13.01,2013-04-24 18:54:00,
2013-04-24 14:55:00,59.0,50.0,29.81,NE,44,1.0,13.0,72,0.00,,SKC,0.05,VWS V13.01,2013-04-24 18:55:00,
2013-04-24 14:56:00,59.0,50.4,29.81,NE,44,0.0,13.0,73,0.00,,SKC,0.05,VWS V13.01,2013-04-24 18:56:00,
2013-04-24 14:57:00,59.0,50.4,29.81,NE,44,1.0,13.0,73,0.00,,SKC,0.05,VWS V13.01,2013-04-24 18:57:00,
2013-04-24 14:58:00,59.5,50.8,29.81,NNE,19,3.0,13.0,73,0.00,,SKC,0.05,VWS V13.01,2013-04-24 18:58:00,
2013-04-24 14:59:00,59.8,50.8,29.81,NW,313,3.0,13.0,72,0.00,,SKC,0.05,VWS V13.01,2013-04-24 18:59:00,
2013-04-24 15:00:00,60.0,50.6,29.81,NW,311,3.0,13.0,71,0.00,,SKC,0.05,VWS V13.01,2013-04-24 19:00:00,
2013-04-24 15:01:00,60.2,50.8,29.81,NE,46,3.0,5.0,71,0.00,,SKC,0.05,VWS V13.01,2013-04-24 19:01:00,
2013-04-24 15:02:00,60.3,50.1,29.80,ENE,69,1.0,5.0,69,0.00,,SKC,0.05,VWS V13.01,2013-04-24 19:02:00,
2013-04-24 15:03:00,60.2,50.4,29.80,ENE,69,1.0,5.0,70,0.00,,SKC,0.05,VWS V13.01,2013-04-24 19:03:00,
2013-04-24 15:04:00,60.2,50.4,29.80,NNE,25,4.0,5.0,70,0.00,,SKC,0.05,VWS V13.01,2013-04-24 19:04:00,
2013-04-24 15:05:00,60.3,50.5,29.80,North,360,6.0,8.0,70,0.00,,SKC,0.05,VWS V13.01,2013-04-24 19:05:00,
2013-04-24 15:06:00,60.4,50.6,29.80,NNE,15,2.0,8.0,70,0.00,,SKC,0.05,VWS V13.01,2013-04-24 19:06:00,
2013-04-24 15:07:00,60.5,50.7,29.80,North,360,5.0,8.0,70,0.00,,SKC,0.05,VWS V13.01,2013-04-24 19:07:00,
2013-04-24 15:08:00,60.7,50.5,29.80,WNW,291,3.0,8.0,69,0.00,,SKC,0.05,VWS V13.01,2013-04-24 19:08:00,
2013-04-24 15:09:00,60.7,50.5,29.80,WNW,302,0.0,8.0,69,0.00,,SKC,0.05,VWS V13.01,2013-04-24 19:09:00,
2013-04-24 15:10:00,60.8,50.2,29.80,WNW,302,2.0,8.0,68,0.00,,SKC,0.05,VWS V13.01,2013-04-24 19:10:00,
2013-04-24 15:11:00,60.8,50.2,29.80,WNW,302,0.0,8.0,68,0.00,,SKC,0.05,VWS V13.01,2013-04-24 19:11:00,
2013-04-24 15:12:00,60.9,50.7,29.79,NE,51,5.0,8.0,69,0.00,,SKC,0.05,VWS V13.01,2013-04-24 19:12:00,
2013-04-24 15:13:00,60.9,50.3,29.79,NNE,12,6.0,8.0,68,0.00,,SKC,0.05,VWS V13.01,2013-04-24 19:13:00,
2013-04-24 15:14:00,60.9,50.3,29.79,ENE,58,5.0,8.0,68,0.00,,SKC,0.05,VWS V13.01,2013-04-24 19:14:00,
2013-04-24 15:15:00,60.7,50.5,29.79,NE,44,6.0,8.0,69,0.00,,SKC,0.05,VWS V13.01,2013-04-24 19:15:00,
2013-04-24 15:16:00,60.6,50.4,29.79,NNE,16,3.0,8.0,69,0.00,,SKC,0.05,VWS V13.01,2013-04-24 19:16:00,
2013-04-24 15:17:00,60.5,50.3,29.79,North,360,3.0,8.0,69,0.00,,SKC,0.05,VWS V13.01,2013-04-24 19:17:00,
2013-04-24 15:18:00,60.6,50.8,29.79,NNE,19,2.0,8.0,70,0.00,,SKC,0.05,VWS V13.01,2013-04-24 19:18:00,
2013-04-24 15:19:00,60.6,50.4,29.79,NNW,336,3.0,8.0,69,0.00,,SKC,0.05,VWS V13.01,2013-04-24 19:19:00,
2013-04-24 15:20:00,60.7,50.5,29.79,NNW,336,4.0,8.0,69,0.00,,SKC,0.05,VWS V13.01,2013-04-24 19:20:00,
2013-04-24 15:21:00,60.8,50.6,29.79,NNW,340,7.0,8.0,69,0.00,,SKC,0.05,VWS V13.01,2013-04-24 19:21:00,
2013-04-24 15:22:00,60.9,50.7,29.79,WNW,299,1.0,8.0,69,0.00,,SKC,0.05,VWS V13.01,2013-04-24 19:22:00,
2013-04-24 15:23:00,60.9,50.3,29.79,North,355,1.0,8.0,68,0.00,,SKC,0.05,VWS V13.01,2013-04-24 19:23:00,
2013-04-24 15:24:00,60.9,50.3,29.79,NE,55,1.0,8.0,68,0.00,,SKC,0.05,VWS V13.01,2013-04-24 19:24:00,
2013-04-24 15:25:00,60.9,50.3,29.79,NNW,330,7.0,8.0,68,0.00,,SKC,0.05,VWS V13.01,2013-04-24 19:25:00,
2013-04-24 15:26:00,60.9,50.3,29.79,WNW,297,2.0,8.0,68,0.00,,SKC,0.05,VWS V13.01,2013-04-24 19:26:00,
2013-04-24 15:27:00,60.9,50.3,29.79,WNW,297,2.0,8.0,68,0.00,,SKC,0.05,VWS V13.01,2013-04-24 19:27:00,
2013-04-24 15:28:00,60.9,50.3,29.79,NW,321,2.0,8.0,68,0.00,,SKC,0.05,VWS V13.01,2013-04-24 19:28:00,
2013-04-24 15:29:00,61.0,50.4,29.79,NNW,347,6.0,8.0,68,0.00,,SKC,0.05,VWS V13.01,2013-04-24 19:29:00,
2013-04-24 15:30:00,61.0,50.4,29.79,North,355,5.0,8.0,68,0.00,,SKC,0.05,VWS V13.01,2013-04-24 19:30:00,
2013-04-24 15:31:00,61.0,50.4,29.79,NNW,346,3.0,5.0,68,0.00,,SKC,0.05,VWS V13.01,2013-04-24 19:31:00,
2013-04-24 15:32:00,61.1,50.5,29.79,NNW,341,3.0,5.0,68,0.00,,SKC,0.05,VWS V13.01,2013-04-24 19:32:00,
2013-04-24 15:33:00,61.1,50.5,29.79,NNW,341,3.0,6.0,68,0.00,,SKC,0.05,VWS V13.01,2013-04-24 19:33:00,
2013-04-24 15:34:00,61.1,50.5,29.79,NNW,341,1.0,6.0,68,0.00,,SKC,0.05,VWS V13.01,2013-04-24 19:34:00,
2013-04-24 15:35:00,61.2,50.6,29.79,NNW,341,4.0,6.0,68,0.00,,SKC,0.05,VWS V13.01,2013-04-24 19:35:00,
2013-04-24 15:36:00,61.2,50.6,29.79,NNW,340,4.0,6.0,68,0.00,,SKC,0.05,VWS V13.01,2013-04-24 19:36:00,
2013-04-24 15:37:00,61.3,50.7,29.79,NNW,340,1.0,6.0,68,0.00,,SKC,0.05,VWS V13.01,2013-04-24 19:37:00,
2013-04-24 15:38:00,61.3,50.7,29.79,NE,44,2.0,6.0,68,0.00,,SKC,0.05,VWS V13.01,2013-04-24 19:38:00,
2013-04-24 15:39:00,61.3,50.3,29.79,NE,45,4.0,6.0,67,0.00,,SKC,0.05,VWS V13.01,2013-04-24 19:39:00,
2013-04-24 15:40:00,61.2,50.2,29.79,NE,45,0.0,6.0,67,0.00,,SKC,0.05,VWS V13.01,2013-04-24 19:40:00,
2013-04-24 15:41:00,61.2,50.2,29.79,NE,45,0.0,6.0,67,0.00,,SKC,0.05,VWS V13.01,2013-04-24 19:41:00,
2013-04-24 15:42:00,61.3,50.3,29.79,NE,45,0.0,6.0,67,0.00,,SKC,0.05,VWS V13.01,2013-04-24 19:42:00,
2013-04-24 15:43:00,61.3,50.3,29.78,NE,45,0.0,6.0,67,0.00,,SKC,0.05,VWS V13.01,2013-04-24 19:43:00,
2013-04-24 15:44:00,61.4,50.8,29.79,NE,45,0.0,6.0,68,0.00,,SKC,0.05,VWS V13.01,2013-04-24 19:44:00,
2013-04-24 15:45:00,61.5,50.8,29.78,NE,47,1.0,6.0,68,0.00,,SKC,0.05,VWS V13.01,2013-04-24 19:45:00,
2013-04-24 15:46:00,61.6,51.0,29.78,NNE,25,4.0,6.0,68,0.00,,SKC,0.05,VWS V13.01,2013-04-24 19:46:00,
2013-04-24 15:47:00,61.6,50.5,29.78,ENE,63,10.0,10.0,67,0.00,,SKC,0.05,VWS V13.01,2013-04-24 19:47:00,
2013-04-24 15:48:00,61.5,50.5,29.78,ENE,63,4.0,10.0,67,0.00,,SKC,0.05,VWS V13.01,2013-04-24 19:48:00,
2013-04-24 15:49:00,61.3,50.3,29.78,NE,55,3.0,10.0,67,0.00,,SKC,0.05,VWS V13.01,2013-04-24 19:49:00,
2013-04-24 15:50:00,61.3,50.7,29.78,North,355,6.0,10.0,68,0.00,,SKC,0.05,VWS V13.01,2013-04-24 19:50:00,
2013-04-24 15:51:00,61.2,50.2,29.78,NNE,14,1.0,10.0,67,0.00,,SKC,0.05,VWS V13.01,2013-04-24 19:51:00,
2013-04-24 15:52:00,61.1,50.1,29.78,NNE,14,0.0,10.0,67,0.00,,SKC,0.05,VWS V13.01,2013-04-24 19:52:00,
2013-04-24 15:53:00,61.2,50.6,29.78,NNE,14,0.0,10.0,68,0.00,,SKC,0.05,VWS V13.01,2013-04-24 19:53:00,
2013-04-24 15:54:00,61.3,50.7,29.78,NNE,14,1.0,10.0,68,0.00,,SKC,0.05,VWS V13.01,2013-04-24 19:54:00,
2013-04-24 15:55:00,61.5,50.8,29.78,North,5,2.0,10.0,68,0.00,,SKC,0.05,VWS V13.01,2013-04-24 19:55:00,
2013-04-24 15:56:00,61.7,51.0,29.78,North,5,2.0,10.0,68,0.00,,SKC,0.05,VWS V13.01,2013-04-24 19:56:00,
2013-04-24 15:57:00,61.7,51.0,29.78,North,350,3.0,10.0,68,0.00,,SKC,0.05,VWS V13.01,2013-04-24 19:57:00,
2013-04-24 15:58:00,61.8,51.1,29.79,North,349,3.0,10.0,68,0.00,,SKC,0.05,VWS V13.01,2013-04-24 19:58:00,
2013-04-24 15:59:00,61.9,50.8,29.79,NNW,346,0.0,10.0,67,0.00,,SKC,0.05,VWS V13.01,2013-04-24 19:59:00,
2013-04-24 16:00:00,62.0,51.3,29.79,NE,46,4.0,10.0,68,0.00,,SKC,0.05,VWS V13.01,2013-04-24 20:00:00,
2013-04-24 16:01:00,62.1,51.0,29.79,ENE,68,4.0,5.0,67,0.00,,SKC,0.05,VWS V13.01,2013-04-24 20:01:00,
2013-04-24 16:02:00,62.1,51.0,29.79,ENE,71,4.0,5.0,67,0.00,,SKC,0.05,VWS V13.01,2013-04-24 20:02:00,
2013-04-24 16:03:00,62.1,51.0,29.79,NE,38,6.0,6.0,67,0.00,,SKC,0.05,VWS V13.01,2013-04-24 20:03:00,
2013-04-24 16:04:00,62.1,50.6,29.79,NNE,32,4.0,7.0,66,0.00,,SKC,0.05,VWS V13.01,2013-04-24 20:04:00,
2013-04-24 16:05:00,62.1,51.0,29.79,North,355,3.0,7.0,67,0.00,,SKC,0.05,VWS V13.01,2013-04-24 20:05:00,
2013-04-24 16:06:00,62.2,51.1,29.79,North,355,0.0,7.0,67,0.00,,SKC,0.05,VWS V13.01,2013-04-24 20:06:00,
2013-04-24 16:07:00,62.3,50.8,29.79,NE,52,2.0,7.0,66,0.00,,SKC,0.05,VWS V13.01,2013-04-24 20:07:00,
2013-04-24 16:08:00,62.3,50.8,29.79,NE,51,0.0,7.0,66,0.00,,SKC,0.05,VWS V13.01,2013-04-24 20:08:00,
2013-04-24 16:09:00,62.3,50.8,29.79,NE,44,4.0,7.0,66,0.00,,SKC,0.05,VWS V13.01,2013-04-24 20:09:00,
2013-04-24 16:10:00,62.3,50.4,29.80,NNE,24,1.0,7.0,65,0.00,,SKC,0.05,VWS V13.01,2013-04-24 20:10:00,
2013-04-24 16:11:00,62.2,50.7,29.80,NNE,25,2.0,7.0,66,0.00,,SKC,0.05,VWS V13.01,2013-04-24 20:11:00,
2013-04-24 16:12:00,62.2,50.7,29.80,NNW,346,4.0,7.0,66,0.00,,SKC,0.05,VWS V13.01,2013-04-24 20:12:00,
2013-04-24 16:13:00,62.2,50.7,29.80,North,350,2.0,7.0,66,0.00,,SKC,0.05,VWS V13.01,2013-04-24 20:13:00,
2013-04-24 16:14:00,62.3,50.8,29.80,North,351,2.0,7.0,66,0.00,,SKC,0.05,VWS V13.01,2013-04-24 20:14:00,
2013-04-24 16:15:00,62.3,50.8,29.80,North,351,0.0,7.0,66,0.00,,SKC,0.05,VWS V13.01,2013-04-24 20:15:00,
2013-04-24 16:16:00,62.4,50.9,29.80,North,351,2.0,7.0,66,0.00,,SKC,0.05,VWS V13.01,2013-04-24 20:16:00,
2013-04-24 16:17:00,62.6,51.1,29.80,NNW,327,4.0,7.0,66,0.00,,SKC,0.05,VWS V13.01,2013-04-24 20:17:00,
2013-04-24 16:18:00,62.7,50.8,29.80,NNW,327,1.0,7.0,65,0.00,,SKC,0.05,VWS V13.01,2013-04-24 20:18:00,
2013-04-24 16:19:00,62.8,50.9,29.80,NW,326,2.0,7.0,65,0.00,,SKC,0.05,VWS V13.01,2013-04-24 20:19:00,
2013-04-24 16:20:00,62.9,51.0,29.80,NW,326,2.0,7.0,65,0.00,,SKC,0.05,VWS V13.01,2013-04-24 20:20:00,
2013-04-24 16:21:00,62.9,51.0,29.80,NW,326,2.0,7.0,65,0.00,,SKC,0.05,VWS V13.01,2013-04-24 20:21:00,
2013-04-24 16:22:00,62.9,51.0,29.80,WSW,254,5.0,7.0,65,0.00,,SKC,0.05,VWS V13.01,2013-04-24 20:22:00,
2013-04-24 16:23:00,62.9,51.4,29.80,WSW,256,5.0,7.0,66,0.00,,SKC,0.05,VWS V13.01,2013-04-24 20:23:00,
2013-04-24 16:24:00,62.8,50.9,29.80,WSW,256,2.0,7.0,65,0.00,,SKC,0.05,VWS V13.01,2013-04-24 20:24:00,
2013-04-24 16:25:00,62.8,50.9,29.81,WSW,256,2.0,7.0,65,0.00,,SKC,0.05,VWS V13.01,2013-04-24 20:25:00,
2013-04-24 16:26:00,62.7,51.2,29.81,West,261,4.0,7.0,66,0.00,,SKC,0.05,VWS V13.01,2013-04-24 20:26:00,
2013-04-24 16:27:00,62.7,51.2,29.81,WNW,292,7.0,15.0,66,0.00,,SKC,0.05,VWS V13.01,2013-04-24 20:27:00,
2013-04-24 16:28:00,62.2,50.7,29.81,SSW,208,5.0,15.0,66,0.00,,SKC,0.05,VWS V13.01,2013-04-24 20:28:00,
2013-04-24 16:29:00,61.5,50.0,29.81,SSW,201,10.0,15.0,66,0.00,,SKC,0.05,VWS V13.01,2013-04-24 20:29:00,
2013-04-24 16:30:00,60.9,50.3,29.81,WSW,248,6.0,15.0,68,0.00,,SKC,0.05,VWS V13.01,2013-04-24 20:30:00,
2013-04-24 16:31:00,60.4,50.2,29.81,West,266,2.0,6.0,69,0.00,,SKC,0.05,VWS V13.01,2013-04-24 20:31:00,
2013-04-24 16:32:00,60.1,49.9,29.81,WSW,253,2.0,6.0,69,0.00,,SKC,0.05,VWS V13.01,2013-04-24 20:32:00,
2013-04-24 16:33:00,59.8,50.0,29.81,South,186,10.0,10.0,70,0.00,,SKC,0.05,VWS V13.01,2013-04-24 20:33:00,
2013-04-24 16:34:00,59.5,49.7,29.81,South,185,7.0,11.0,70,0.00,,SKC,0.05,VWS V13.01,2013-04-24 20:34:00,
2013-04-24 16:35:00,59.0,49.2,29.81,South,183,9.0,11.0,70,0.00,,SKC,0.05,VWS V13.01,2013-04-24 20:35:00,
2013-04-24 16:36:00,58.8,49.4,29.81,South,171,4.0,11.0,71,0.00,,SKC,0.05,VWS V13.01,2013-04-24 20:36:00,
2013-04-24 16:37:00,58.3,49.0,29.81,WSW,244,4.0,11.0,71,0.00,,SKC,0.05,VWS V13.01,2013-04-24 20:37:00,
2013-04-24 16:38:00,58.2,49.2,29.81,South,179,7.0,11.0,72,0.00,,SKC,0.05,VWS V13.01,2013-04-24 20:38:00,
2013-04-24 16:39:00,57.9,48.9,29.81,SSW,203,4.0,11.0,72,0.00,,SKC,0.05,VWS V13.01,2013-04-24 20:39:00,
2013-04-24 16:40:00,57.9,49.3,29.81,SSW,201,6.0,11.0,73,0.00,,SKC,0.05,VWS V13.01,2013-04-24 20:40:00,
2013-04-24 16:41:00,57.9,49.7,29.81,SW,214,3.0,11.0,74,0.00,,SKC,0.05,VWS V13.01,2013-04-24 20:41:00,
2013-04-24 16:42:00,57.9,49.3,29.81,SSW,198,7.0,11.0,73,0.00,,SKC,0.05,VWS V13.01,2013-04-24 20:42:00,
2013-04-24 16:43:00,57.8,49.2,29.81,SSW,192,1.0,11.0,73,0.00,,SKC,0.05,VWS V13.01,2013-04-24 20:43:00,
2013-04-24 16:44:00,57.8,49.2,29.81,SW,216,3.0,11.0,73,0.00,,SKC,0.05,VWS V13.01,2013-04-24 20:44:00,
2013-04-24 16:45:00,57.7,49.1,29.81,SSW,205,0.0,11.0,73,0.00,,SKC,0.05,VWS V13.01,2013-04-24 20:45:00,
2013-04-24 16:46:00,57.8,49.6,29.81,SW,232,4.0,11.0,74,0.00,,SKC,0.05,VWS V13.01,2013-04-24 20:46:00,
2013-04-24 16:47:00,58.0,49.8,29.81,SW,229,5.0,11.0,74,0.00,,SKC,0.05,VWS V13.01,2013-04-24 20:47:00,
2013-04-24 16:48:00,58.1,49.9,29.81,South,180,3.0,11.0,74,0.00,,SKC,0.05,VWS V13.01,2013-04-24 20:48:00,
2013-04-24 16:49:00,58.3,50.1,29.81,WSW,246,4.0,11.0,74,0.00,,SKC,0.05,VWS V13.01,2013-04-24 20:49:00,
2013-04-24 16:50:00,58.6,50.3,29.81,SW,236,2.0,11.0,74,0.00,,SKC,0.05,VWS V13.01,2013-04-24 20:50:00,
2013-04-24 16:51:00,58.9,50.6,29.81,SSW,202,0.0,11.0,74,0.00,,SKC,0.05,VWS V13.01,2013-04-24 20:51:00,
2013-04-24 16:52:00,59.0,50.7,29.81,SSW,203,2.0,11.0,74,0.00,,SKC,0.05,VWS V13.01,2013-04-24 20:52:00,
2013-04-24 16:53:00,59.0,50.0,29.81,SSW,207,4.0,11.0,72,0.00,,SKC,0.05,VWS V13.01,2013-04-24 20:53:00,
2013-04-24 16:54:00,59.0,50.0,29.81,WSW,253,2.0,11.0,72,0.00,,SKC,0.05,VWS V13.01,2013-04-24 20:54:00,
2013-04-24 16:55:00,59.0,50.0,29.81,WSW,239,2.0,11.0,72,0.00,,SKC,0.05,VWS V13.01,2013-04-24 20:55:00,
2013-04-24 16:56:00,59.0,50.4,29.81,WSW,254,4.0,11.0,73,0.00,,SKC,0.05,VWS V13.01,2013-04-24 20:56:00,
2013-04-24 16:57:00,59.0,50.0,29.82,SW,223,4.0,11.0,72,0.00,,SKC,0.05,VWS V13.01,2013-04-24 20:57:00,
2013-04-24 16:58:00,59.0,50.0,29.81,South,178,6.0,11.0,72,0.00,,SKC,0.05,VWS V13.01,2013-04-24 20:58:00,
2013-04-24 16:59:00,59.0,50.0,29.81,SSW,200,3.0,11.0,72,0.00,,SKC,0.05,VWS V13.01,2013-04-24 20:59:00,
2013-04-24 17:00:00,59.0,50.0,29.82,SW,232,4.0,11.0,72,0.00,,SKC,0.05,VWS V13.01,2013-04-24 21:00:00,
2013-04-24 17:01:00,59.0,50.4,29.82,WSW,254,3.0,4.0,73,0.00,,SKC,0.05,VWS V13.01,2013-04-24 21:01:00,
2013-04-24 17:02:00,59.0,50.0,29.82,WSW,254,3.0,7.0,72,0.00,,SKC,0.05,VWS V13.01,2013-04-24 21:02:00,
2013-04-24 17:03:00,59.0,50.0,29.82,WSW,254,3.0,7.0,72,0.00,,SKC,0.05,VWS V13.01,2013-04-24 21:03:00,
2013-04-24 17:04:00,59.1,50.1,29.82,SW,229,4.0,7.0,72,0.00,,SKC,0.05,VWS V13.01,2013-04-24 21:04:00,
2013-04-24 17:05:00,59.1,50.1,29.82,SW,223,1.0,7.0,72,0.00,,SKC,0.05,VWS V13.01,2013-04-24 21:05:00,
2013-04-24 17:06:00,59.1,50.1,29.81,SW,221,3.0,7.0,72,0.00,,SKC,0.05,VWS V13.01,2013-04-24 21:06:00,
2013-04-24 17:07:00,59.3,50.3,29.81,SW,232,2.0,7.0,72,0.00,,SKC,0.05,VWS V13.01,2013-04-24 21:07:00,
2013-04-24 17:08:00,59.3,50.3,29.81,SW,232,1.0,7.0,72,0.00,,SKC,0.05,VWS V13.01,2013-04-24 21:08:00,
2013-04-24 17:09:00,59.3,50.3,29.81,SW,232,2.0,7.0,72,0.00,,SKC,0.05,VWS V13.01,2013-04-24 21:09:00,
2013-04-24 17:10:00,59.5,50.5,29.81,SW,231,2.0,7.0,72,0.00,,SKC,0.05,VWS V13.01,2013-04-24 21:10:00,
2013-04-24 17:11:00,59.7,50.7,29.81,SW,229,5.0,7.0,72,0.00,,SKC,0.05,VWS V13.01,2013-04-24 21:11:00,
2013-04-24 17:12:00,59.8,50.4,29.81,SW,227,1.0,7.0,71,0.00,,SKC,0.05,VWS V13.01,2013-04-24 21:12:00,
2013-04-24 17:13:00,59.9,50.5,29.81,SW,232,4.0,7.0,71,0.00,,SKC,0.05,VWS V13.01,2013-04-24 21:13:00,
2013-04-24 17:14:00,59.9,50.5,29.81,SW,222,4.0,9.0,71,0.00,,SKC,0.05,VWS V13.01,2013-04-24 21:14:00,
2013-04-24 17:15:00,59.8,50.0,29.81,SW,221,2.0,9.0,70,0.00,,SKC,0.05,VWS V13.01,2013-04-24 21:15:00,
2013-04-24 17:16:00,59.8,50.4,29.81,SW,217,4.0,9.0,71,0.00,,SKC,0.05,VWS V13.01,2013-04-24 21:16:00,
2013-04-24 17:17:00,59.8,50.4,29.81,SW,221,5.0,9.0,71,0.00,,SKC,0.05,VWS V13.01,2013-04-24 21:17:00,
2013-04-24 17:18:00,59.7,50.3,29.82,West,261,6.0,12.0,71,0.00,,SKC,0.05,VWS V13.01,2013-04-24 21:18:00,
2013-04-24 17:19:00,59.2,49.4,29.82,WSW,247,10.0,12.0,70,0.00,,SKC,0.05,VWS V13.01,2013-04-24 21:19:00,
2013-04-24 17:20:00,59.0,49.2,29.82,West,259,4.0,12.0,70,0.00,,SKC,0.05,VWS V13.01,2013-04-24 21:20:00,
2013-04-24 17:21:00,58.6,49.2,29.82,West,262,6.0,12.0,71,0.00,,SKC,0.05,VWS V13.01,2013-04-24 21:21:00,
2013-04-24 17:22:00,58.1,49.1,29.82,SSW,209,4.0,12.0,72,0.00,,SKC,0.05,VWS V13.01,2013-04-24 21:22:00,
2013-04-24 17:23:00,57.7,48.8,29.82,SSW,199,2.0,12.0,72,0.00,,SKC,0.05,VWS V13.01,2013-04-24 21:23:00,
2013-04-24 17:24:00,57.4,48.8,29.82,SSW,205,6.0,12.0,73,0.00,,SKC,0.05,VWS V13.01,2013-04-24 21:24:00,
2013-04-24 17:25:00,57.0,48.1,29.82,SW,234,9.0,12.0,72,0.00,,SKC,0.05,VWS V13.01,2013-04-24 21:25:00,
2013-04-24 17:26:00,56.5,48.0,29.82,SSW,195,6.0,12.0,73,0.00,,SKC,0.05,VWS V13.01,2013-04-24 21:26:00,
2013-04-24 17:27:00,55.8,47.3,29.83,South,186,8.0,12.0,73,0.00,,SKC,0.05,VWS V13.01,2013-04-24 21:27:00,
2013-04-24 17:28:00,55.1,47.3,29.83,SW,215,5.0,12.0,75,0.00,,SKC,0.05,VWS V13.01,2013-04-24 21:28:00,
2013-04-24 17:29:00,54.8,47.4,29.83,WSW,257,6.0,12.0,76,0.00,,SKC,0.05,VWS V13.01,2013-04-24 21:29:00,
2013-04-24 17:30:00,54.6,47.2,29.83,South,189,3.0,12.0,76,0.00,,SKC,0.05,VWS V13.01,2013-04-24 21:30:00,
2013-04-24 17:31:00,54.3,47.2,29.83,South,190,4.0,4.0,77,0.00,,SKC,0.05,VWS V13.01,2013-04-24 21:31:00,
2013-04-24 17:32:00,54.1,47.1,29.83,SW,219,2.0,6.0,77,0.00,,SKC,0.05,VWS V13.01,2013-04-24 21:32:00,
2013-04-24 17:33:00,54.0,47.3,29.83,SW,219,1.0,6.0,78,0.00,,SKC,0.05,VWS V13.01,2013-04-24 21:33:00,
2013-04-24 17:34:00,54.0,47.3,29.83,South,178,2.0,6.0,78,0.00,,SKC,0.05,VWS V13.01,2013-04-24 21:34:00,
2013-04-24 17:35:00,53.9,47.2,29.83,SW,215,3.0,6.0,78,0.00,,SKC,0.05,VWS V13.01,2013-04-24 21:35:00,
2013-04-24 17:36:00,53.9,47.5,29.83,SSW,209,4.0,6.0,79,0.00,,SKC,0.05,VWS V13.01,2013-04-24 21:36:00,
2013-04-24 17:37:00,53.9,47.5,29.83,SSW,192,2.0,6.0,79,0.00,,SKC,0.05,VWS V13.01,2013-04-24 21:37:00,
2013-04-24 17:38:00,53.9,47.5,29.83,South,190,3.0,6.0,79,0.00,,SKC,0.05,VWS V13.01,2013-04-24 21:38:00,
2013-04-24 17:39:00,53.9,47.5,29.83,SW,235,1.0,6.0,79,0.00,,SKC,0.05,VWS V13.01,2013-04-24 21:39:00,
2013-04-24 17:40:00,53.9,47.5,29.83,SSW,200,4.0,6.0,79,0.00,,SKC,0.05,VWS V13.01,2013-04-24 21:40:00,
2013-04-24 17:41:00,53.9,47.5,29.83,SSW,210,3.0,6.0,79,0.00,,SKC,0.05,VWS V13.01,2013-04-24 21:41:00,
2013-04-24 17:42:00,54.1,47.7,29.83,WSW,253,2.0,6.0,79,0.00,,SKC,0.05,VWS V13.01,2013-04-24 21:42:00,
2013-04-24 17:43:00,54.2,47.8,29.83,WSW,237,5.0,7.0,79,0.00,,SKC,0.05,VWS V13.01,2013-04-24 21:43:00,
2013-04-24 17:44:00,54.1,47.4,29.83,SSW,200,3.0,7.0,78,0.00,,SKC,0.05,VWS V13.01,2013-04-24 21:44:00,
2013-04-24 17:45:00,54.1,47.4,29.83,West,265,4.0,7.0,78,0.00,,SKC,0.05,VWS V13.01,2013-04-24 21:45:00,
2013-04-24 17:46:00,54.1,47.4,29.83,WSW,240,11.0,11.0,78,0.00,,SKC,0.05,VWS V13.01,2013-04-24 21:46:00,
2013-04-24 17:47:00,53.9,47.2,29.83,SW,216,3.0,11.0,78,0.00,,SKC,0.05,VWS V13.01,2013-04-24 21:47:00,
2013-04-24 17:48:00,53.9,47.2,29.83,SSE,161,3.0,11.0,78,0.00,,SKC,0.05,VWS V13.01,2013-04-24 21:48:00,
2013-04-24 17:49:00,53.7,47.0,29.83,SSW,207,5.0,11.0,78,0.00,,SKC,0.05,VWS V13.01,2013-04-24 21:49:00,
2013-04-24 17:50:00,53.5,47.2,29.83,South,171,4.0,11.0,79,0.00,,SKC,0.05,VWS V13.01,2013-04-24 21:50:00,
2013-04-24 17:51:00,53.5,47.2,29.83,SW,214,3.0,11.0,79,0.00,,SKC,0.05,VWS V13.01,2013-04-24 21:51:00,
2013-04-24 17:52:00,53.5,47.2,29.83,SSW,206,3.0,11.0,79,0.00,,SKC,0.05,VWS V13.01,2013-04-24 21:52:00,
2013-04-24 17:53:00,53.6,47.3,29.83,SW,225,3.0,11.0,79,0.00,,SKC,0.05,VWS V13.01,2013-04-24 21:53:00,
2013-04-24 17:54:00,53.6,47.3,29.83,SSW,210,2.0,11.0,79,0.00,,SKC,0.05,VWS V13.01,2013-04-24 21:54:00,
2013-04-24 17:55:00,53.7,47.3,29.83,SSW,197,2.0,11.0,79,0.00,,SKC,0.05,VWS V13.01,2013-04-24 21:55:00,
2013-04-24 17:56:00,53.7,47.3,29.83,SSW,195,6.0,11.0,79,0.00,,SKC,0.05,VWS V13.01,2013-04-24 21:56:00,
2013-04-24 17:57:00,53.7,47.3,29.83,SSW,206,5.0,11.0,79,0.00,,SKC,0.05,VWS V13.01,2013-04-24 21:57:00,
2013-04-24 17:58:00,53.8,47.5,29.83,SSW,199,8.0,11.0,79,0.00,,SKC,0.05,VWS V13.01,2013-04-24 21:58:00,
2013-04-24 17:59:00,53.9,47.5,29.83,SW,220,3.0,11.0,79,0.00,,SKC,0.05,VWS V13.01,2013-04-24 21:59:00,
2013-04-24 18:00:00,53.9,47.5,29.83,SW,220,2.0,11.0,79,0.00,,SKC,0.05,VWS V13.01,2013-04-24 22:00:00,
2013-04-24 18:01:00,54.0,47.6,29.83,SW,221,0.0,2.0,79,0.00,,SKC,0.05,VWS V13.01,2013-04-24 22:01:00,
2013-04-24 18:02:00,54.2,47.8,29.83,SW,236,6.0,6.0,79,0.00,,SKC,0.05,VWS V13.01,2013-04-24 22:02:00,
2013-04-24 18:03:00,54.2,47.5,29.83,WSW,250,2.0,7.0,78,0.00,,SKC,0.05,VWS V13.01,2013-04-24 22:03:00,
2013-04-24 18:04:00,54.2,47.5,29.83,WSW,250,6.0,7.0,78,0.00,,SKC,0.05,VWS V13.01,2013-04-24 22:04:00,
2013-04-24 18:05:00,54.2,47.5,29.83,SSE,155,4.0,7.0,78,0.00,,SKC,0.05,VWS V13.01,2013-04-24 22:05:00,
2013-04-24 18:06:00,54.1,47.4,29.83,WSW,238,3.0,7.0,78,0.00,,SKC,0.05,VWS V13.01,2013-04-24 22:06:00,
2013-04-24 18:07:00,54.1,47.4,29.83,WSW,238,2.0,7.0,78,0.00,,SKC,0.05,VWS V13.01,2013-04-24 22:07:00,
2013-04-24 18:08:00,54.2,47.5,29.83,SW,234,6.0,7.0,78,0.00,,SKC,0.05,VWS V13.01,2013-04-24 22:08:00,
2013-04-24 18:09:00,54.1,47.4,29.83,SSW,210,2.0,10.0,78,0.00,,SKC,0.05,VWS V13.01,2013-04-24 22:09:00,
2013-04-24 18:10:00,54.0,47.3,29.83,WSW,238,2.0,10.0,78,0.00,,SKC,0.05,VWS V13.01,2013-04-24 22:10:00,
2013-04-24 18:11:00,54.0,47.3,29.83,SSW,200,6.0,10.0,78,0.00,,SKC,0.05,VWS V13.01,2013-04-24 22:11:00,
2013-04-24 18:12:00,53.9,47.2,29.83,SSW,194,2.0,10.0,78,0.00,,SKC,0.05,VWS V13.01,2013-04-24 22:12:00,
2013-04-24 18:13:00,53.9,47.2,29.83,WSW,248,4.0,10.0,78,0.00,,SKC,0.05,VWS V13.01,2013-04-24 22:13:00,
2013-04-24 18:14:00,53.9,47.2,29.83,WSW,252,2.0,10.0,78,0.00,,SKC,0.05,VWS V13.01,2013-04-24 22:14:00,
2013-04-24 18:15:00,53.8,47.1,29.83,West,273,3.0,10.0,78,0.00,,SKC,0.05,VWS V13.01,2013-04-24 22:15:00,
2013-04-24 18:16:00,53.8,47.5,29.83,West,273,4.0,10.0,79,0.00,,SKC,0.05,VWS V13.01,2013-04-24 22:16:00,
2013-04-24 18:17:00,53.9,47.5,29.83,SW,223,4.0,10.0,79,0.00,,SKC,0.05,VWS V13.01,2013-04-24 22:17:00,
2013-04-24 18:18:00,53.9,47.5,29.83,WSW,240,3.0,10.0,79,0.00,,SKC,0.05,VWS V13.01,2013-04-24 22:18:00,
2013-04-24 18:19:00,54.0,47.6,29.83,SSW,211,4.0,10.0,79,0.00,,SKC,0.05,VWS V13.01,2013-04-24 22:19:00,
2013-04-24 18:20:00,54.0,47.6,29.83,WNW,286,4.0,10.0,79,0.00,,SKC,0.05,VWS V13.01,2013-04-24 22:20:00,
2013-04-24 18:21:00,54.1,47.7,29.83,West,261,9.0,10.0,79,0.00,,SKC,0.05,VWS V13.01,2013-04-24 22:21:00,
2013-04-24 18:22:00,54.2,47.8,29.83,West,261,3.0,10.0,79,0.00,,SKC,0.05,VWS V13.01,2013-04-24 22:22:00,
2013-04-24 18:23:00,54.2,47.8,29.83,WSW,257,2.0,10.0,79,0.00,,SKC,0.05,VWS V13.01,2013-04-24 22:23:00,
2013-04-24 18:24:00,54.2,47.8,29.83,SW,236,2.0,10.0,79,0.00,,SKC,0.05,VWS V13.01,2013-04-24 22:24:00,
2013-04-24 18:25:00,54.2,47.5,29.83,SW,236,1.0,10.0,78,0.00,,SKC,0.05,VWS V13.01,2013-04-24 22:25:00,
2013-04-24 18:26:00,54.2,47.8,29.83,WSW,245,4.0,10.0,79,0.00,,SKC,0.05,VWS V13.01,2013-04-24 22:26:00,
2013-04-24 18:27:00,54.1,47.4,29.83,WSW,247,2.0,10.0,78,0.00,,SKC,0.05,VWS V13.01,2013-04-24 22:27:00,
2013-04-24 18:28:00,54.1,47.4,29.83,West,262,6.0,10.0,78,0.00,,SKC,0.05,VWS V13.01,2013-04-24 22:28:00,
2013-04-24 18:29:00,54.0,47.3,29.83,WSW,245,3.0,10.0,78,0.00,,SKC,0.05,VWS V13.01,2013-04-24 22:29:00,
2013-04-24 18:30:00,53.9,47.2,29.83,West,262,1.0,10.0,78,0.00,,SKC,0.05,VWS V13.01,2013-04-24 22:30:00,
2013-04-24 18:31:00,53.8,47.1,29.83,South,180,5.0,6.0,78,0.00,,SKC,0.05,VWS V13.01,2013-04-24 22:31:00,
2013-04-24 18:32:00,53.7,47.0,29.83,WSW,242,3.0,6.0,78,0.00,,SKC,0.05,VWS V13.01,2013-04-24 22:32:00,
2013-04-24 18:33:00,53.6,47.3,29.83,West,260,3.0,6.0,79,0.00,,SKC,0.05,VWS V13.01,2013-04-24 22:33:00,
2013-04-24 18:34:00,53.5,47.2,29.83,SSW,202,2.0,6.0,79,0.00,,SKC,0.05,VWS V13.01,2013-04-24 22:34:00,
2013-04-24 18:35:00,53.4,47.1,29.83,SSW,200,4.0,6.0,79,0.00,,SKC,0.05,VWS V13.01,2013-04-24 22:35:00,
2013-04-24 18:36:00,53.3,47.0,29.83,SSW,213,1.0,6.0,79,0.00,,SKC,0.05,VWS V13.01,2013-04-24 22:36:00,
2013-04-24 18:37:00,53.4,47.1,29.82,SSW,213,2.0,6.0,79,0.00,,SKC,0.05,VWS V13.01,2013-04-24 22:37:00,
2013-04-24 18:38:00,53.4,47.1,29.82,SSW,213,3.0,6.0,79,0.00,,SKC,0.05,VWS V13.01,2013-04-24 22:38:00,
2013-04-24 18:39:00,53.5,47.2,29.82,SW,214,0.0,6.0,79,0.00,,SKC,0.05,VWS V13.01,2013-04-24 22:39:00,
2013-04-24 18:40:00,53.5,47.2,29.82,SW,214,0.0,6.0,79,0.00,,SKC,0.05,VWS V13.01,2013-04-24 22:40:00,
2013-04-24 18:41:00,53.6,47.3,29.82,SW,214,0.0,6.0,79,0.00,,SKC,0.05,VWS V13.01,2013-04-24 22:41:00,
2013-04-24 18:42:00,53.6,47.3,29.82,SW,214,1.0,6.0,79,0.00,,SKC,0.05,VWS V13.01,2013-04-24 22:42:00,
2013-04-24 18:43:00,53.7,47.3,29.82,SW,214,1.0,6.0,79,0.00,,SKC,0.05,VWS V13.01,2013-04-24 22:43:00,
2013-04-24 18:44:00,53.8,47.5,29.82,SW,214,2.0,6.0,79,0.00,,SKC,0.05,VWS V13.01,2013-04-24 22:44:00,
2013-04-24 18:45:00,53.8,47.5,29.82,SW,217,3.0,6.0,79,0.00,,SKC,0.05,VWS V13.01,2013-04-24 22:45:00,
2013-04-24 18:46:00,53.8,47.5,29.82,SW,217,0.0,6.0,79,0.00,,SKC,0.05,VWS V13.01,2013-04-24 22:46:00,
2013-04-24 18:47:00,53.9,47.5,29.82,SW,217,1.0,6.0,79,0.00,,SKC,0.05,VWS V13.01,2013-04-24 22:47:00,
2013-04-24 18:48:00,53.9,47.5,29.82,SSW,199,3.0,6.0,79,0.00,,SKC,0.05,VWS V13.01,2013-04-24 22:48:00,
2013-04-24 18:49:00,53.9,47.5,29.82,WSW,244,5.0,6.0,79,0.00,,SKC,0.05,VWS V13.01,2013-04-24 22:49:00,
2013-04-24 18:50:00,53.8,47.5,29.82,WSW,244,1.0,6.0,79,0.00,,SKC,0.05,VWS V13.01,2013-04-24 22:50:00,
2013-04-24 18:51:00,53.8,47.5,29.82,WSW,245,2.0,6.0,79,0.00,,SKC,0.05,VWS V13.01,2013-04-24 22:51:00,
2013-04-24 18:52:00,53.7,47.3,29.82,WSW,244,3.0,6.0,79,0.00,,SKC,0.05,VWS V13.01,2013-04-24 22:52:00,
2013-04-24 18:53:00,53.5,47.2,29.83,WSW,244,1.0,6.0,79,0.00,,SKC,0.05,VWS V13.01,2013-04-24 22:53:00,
2013-04-24 18:54:00,53.3,46.6,29.83,WSW,246,1.0,6.0,78,0.00,,SKC,0.05,VWS V13.01,2013-04-24 22:54:00,
2013-04-24 18:55:00,53.1,46.8,29.83,WSW,248,1.0,6.0,79,0.00,,SKC,0.05,VWS V13.01,2013-04-24 22:55:00,
2013-04-24 18:56:00,52.8,46.5,29.83,WSW,248,1.0,6.0,79,0.00,,SKC,0.05,VWS V13.01,2013-04-24 22:56:00,
2013-04-24 18:57:00,52.6,46.3,29.83,West,261,7.0,7.0,79,0.00,,SKC,0.05,VWS V13.01,2013-04-24 22:57:00,
2013-04-24 18:58:00,52.3,46.3,29.83,WSW,249,4.0,7.0,80,0.00,,SKC,0.05,VWS V13.01,2013-04-24 22:58:00,
2013-04-24 18:59:00,52.1,46.1,29.83,WSW,250,2.0,7.0,80,0.00,,SKC,0.05,VWS V13.01,2013-04-24 22:59:00,
2013-04-24 19:00:00,51.9,46.3,29.83,SW,235,5.0,7.0,81,0.00,,SKC,0.05,VWS V13.01,2013-04-24 23:00:00,
2013-04-24 19:01:00,51.7,46.1,29.83,SW,227,2.0,5.0,81,0.00,,SKC,0.05,VWS V13.01,2013-04-24 23:01:00,
2013-04-24 19:02:00,51.6,46.3,29.83,WSW,237,2.0,5.0,82,0.00,,SKC,0.05,VWS V13.01,2013-04-24 23:02:00,
2013-04-24 19:03:00,51.4,46.1,29.83,SW,229,2.0,5.0,82,0.00,,SKC,0.05,VWS V13.01,2013-04-24 23:03:00,
2013-04-24 19:04:00,51.3,46.0,29.83,SW,225,2.0,5.0,82,0.00,,SKC,0.05,VWS V13.01,2013-04-24 23:04:00,
2013-04-24 19:05:00,51.2,45.9,29.83,SW,221,5.0,5.0,82,0.00,,SKC,0.05,VWS V13.01,2013-04-24 23:05:00,
2013-04-24 19:06:00,50.9,45.6,29.83,WSW,252,4.0,5.0,82,0.00,,SKC,0.05,VWS V13.01,2013-04-24 23:06:00,
2013-04-24 19:07:00,50.7,45.4,29.83,SW,216,5.0,6.0,82,0.00,,SKC,0.05,VWS V13.01,2013-04-24 23:07:00,
2013-04-24 19:08:00,50.5,45.5,29.83,SSW,199,2.0,6.0,83,0.00,,SKC,0.05,VWS V13.01,2013-04-24 23:08:00,
2013-04-24 19:09:00,50.3,45.3,29.84,SSW,208,2.0,6.0,83,0.00,,SKC,0.05,VWS V13.01,2013-04-24 23:09:00,
2013-04-24 19:10:00,50.1,45.5,29.84,SW,219,4.0,6.0,84,0.00,,SKC,0.05,VWS V13.01,2013-04-24 23:10:00,
2013-04-24 19:11:00,50.1,45.5,29.84,West,262,4.0,6.0,84,0.00,,SKC,0.05,VWS V13.01,2013-04-24 23:11:00,
2013-04-24 19:12:00,49.9,45.3,29.84,SW,233,3.0,6.0,84,0.00,,SKC,0.05,VWS V13.01,2013-04-24 23:12:00,
2013-04-24 19:13:00,49.7,45.1,29.84,SW,236,4.0,6.0,84,0.00,,SKC,0.05,VWS V13.01,2013-04-24 23:13:00,
2013-04-24 19:14:00,49.6,45.3,29.84,West,272,6.0,7.0,85,0.00,,SKC,0.05,VWS V13.01,2013-04-24 23:14:00,
2013-04-24 19:15:00,49.4,44.8,29.84,West,267,3.0,7.0,84,0.00,,SKC,0.05,VWS V13.01,2013-04-24 23:15:00,
2013-04-24 19:16:00,49.2,44.9,29.84,West,265,4.0,7.0,85,0.00,,SKC,0.05,VWS V13.01,2013-04-24 23:16:00,
2013-04-24 19:17:00,49.2,44.9,29.84,West,263,0.0,7.0,85,0.00,,SKC,0.05,VWS V13.01,2013-04-24 23:17:00,
2013-04-24 19:18:00,49.1,44.8,29.84,SW,223,1.0,7.0,85,0.00,,SKC,0.05,VWS V13.01,2013-04-24 23:18:00,
2013-04-24 19:19:00,48.9,44.6,29.84,SW,223,1.0,7.0,85,0.00,,SKC,0.05,VWS V13.01,2013-04-24 23:19:00,
2013-04-24 19:20:00,48.8,44.5,29.84,West,263,2.0,7.0,85,0.00,,SKC,0.05,VWS V13.01,2013-04-24 23:20:00,
2013-04-24 19:21:00,48.7,44.7,29.85,West,262,2.0,7.0,86,0.00,,SKC,0.05,VWS V13.01,2013-04-24 23:21:00,
2013-04-24 19:22:00,48.6,44.6,29.85,West,259,1.0,7.0,86,0.00,,SKC,0.05,VWS V13.01,2013-04-24 23:22:00,
2013-04-24 19:23:00,48.5,44.5,29.85,West,262,1.0,9.0,86,0.00,,SKC,0.05,VWS V13.01,2013-04-24 23:23:00,
2013-04-24 19:24:00,48.3,44.3,29.85,WSW,258,4.0,9.0,86,0.00,,SKC,0.05,VWS V13.01,2013-04-24 23:24:00,
2013-04-24 19:25:00,48.2,44.2,29.85,WSW,246,4.0,9.0,86,0.00,,SKC,0.05,VWS V13.01,2013-04-24 23:25:00,
2013-04-24 19:26:00,48.1,44.1,29.85,WSW,246,0.0,9.0,86,0.00,,SKC,0.05,VWS V13.01,2013-04-24 23:26:00,
2013-04-24 19:27:00,48.0,44.0,29.85,WSW,244,2.0,9.0,86,0.00,,SKC,0.05,VWS V13.01,2013-04-24 23:27:00,
2013-04-24 19:28:00,47.9,43.9,29.85,South,189,5.0,9.0,86,0.00,,SKC,0.05,VWS V13.01,2013-04-24 23:28:00,
2013-04-24 19:29:00,47.8,44.1,29.85,SSW,202,3.0,9.0,87,0.00,,SKC,0.05,VWS V13.01,2013-04-24 23:29:00,
2013-04-24 19:30:00,47.7,44.0,29.85,SW,217,2.0,9.0,87,0.00,,SKC,0.05,VWS V13.01,2013-04-24 23:30:00,
2013-04-24 19:31:00,47.6,43.9,29.85,SW,219,1.0,2.0,87,0.00,,SKC,0.05,VWS V13.01,2013-04-24 23:31:00,
2013-04-24 19:32:00,47.6,43.9,29.85,SW,233,4.0,5.0,87,0.00,,SKC,0.05,VWS V13.01,2013-04-24 23:32:00,
2013-04-24 19:33:00,47.5,43.8,29.85,WSW,256,0.0,7.0,87,0.00,,SKC,0.05,VWS V13.01,2013-04-24 23:33:00,
2013-04-24 19:34:00,47.4,43.7,29.85,WSW,256,0.0,7.0,87,0.00,,SKC,0.05,VWS V13.01,2013-04-24 23:34:00,
2013-04-24 19:35:00,47.4,44.0,29.85,WSW,254,4.0,7.0,88,0.00,,SKC,0.05,VWS V13.01,2013-04-24 23:35:00,
2013-04-24 19:36:00,47.3,43.9,29.85,WSW,257,1.0,7.0,88,0.00,,SKC,0.05,VWS V13.01,2013-04-24 23:36:00,
2013-04-24 19:37:00,47.3,43.9,29.85,SW,227,5.0,7.0,88,0.00,,SKC,0.05,VWS V13.01,2013-04-24 23:37:00,
2013-04-24 19:38:00,47.3,43.9,29.85,WSW,248,2.0,7.0,88,0.00,,SKC,0.05,VWS V13.01,2013-04-24 23:38:00,
2013-04-24 19:39:00,47.2,43.8,29.85,WSW,240,4.0,7.0,88,0.00,,SKC,0.05,VWS V13.01,2013-04-24 23:39:00,
2013-04-24 19:40:00,47.2,43.8,29.85,SW,231,0.0,7.0,88,0.00,,SKC,0.05,VWS V13.01,2013-04-24 23:40:00,
2013-04-24 19:41:00,47.2,43.8,29.85,SW,232,1.0,7.0,88,0.00,,SKC,0.05,VWS V13.01,2013-04-24 23:41:00,
2013-04-24 19:42:00,47.2,43.8,29.84,SSW,200,2.0,7.0,88,0.00,,SKC,0.05,VWS V13.01,2013-04-24 23:42:00,
2013-04-24 19:43:00,47.2,44.1,29.84,SSW,199,1.0,7.0,89,0.00,,SKC,0.05,VWS V13.01,2013-04-24 23:43:00,
2013-04-24 19:44:00,47.2,44.1,29.84,SSW,200,1.0,7.0,89,0.00,,SKC,0.05,VWS V13.01,2013-04-24 23:44:00,
2013-04-24 19:45:00,47.2,44.1,29.84,SSW,205,2.0,7.0,89,0.00,,SKC,0.05,VWS V13.01,2013-04-24 23:45:00,
2013-04-24 19:46:00,47.2,44.1,29.84,SW,214,4.0,7.0,89,0.00,,SKC,0.05,VWS V13.01,2013-04-24 23:46:00,
2013-04-24 19:47:00,47.3,44.2,29.84,SW,215,3.0,7.0,89,0.00,,SKC,0.05,VWS V13.01,2013-04-24 23:47:00,
2013-04-24 19:48:00,47.3,44.2,29.84,SW,215,2.0,7.0,89,0.00,,SKC,0.05,VWS V13.01,2013-04-24 23:48:00,
2013-04-24 19:49:00,47.3,44.2,29.84,SW,215,3.0,7.0,89,0.00,,SKC,0.05,VWS V13.01,2013-04-24 23:49:00,
2013-04-24 19:50:00,47.3,44.2,29.84,SW,215,1.0,7.0,89,0.00,,SKC,0.05,VWS V13.01,2013-04-24 23:50:00,
2013-04-24 19:51:00,47.4,44.3,29.84,SW,223,4.0,7.0,89,0.00,,SKC,0.05,VWS V13.01,2013-04-24 23:51:00,
2013-04-24 19:52:00,47.4,44.3,29.84,SW,223,1.0,7.0,89,0.00,,SKC,0.05,VWS V13.01,2013-04-24 23:52:00,
2013-04-24 19:53:00,47.4,44.3,29.84,SW,223,2.0,7.0,89,0.00,,SKC,0.05,VWS V13.01,2013-04-24 23:53:00,
2013-04-24 19:54:00,47.4,44.3,29.84,SW,223,1.0,7.0,89,0.00,,SKC,0.05,VWS V13.01,2013-04-24 23:54:00,
2013-04-24 19:55:00,47.4,44.3,29.84,SSW,206,1.0,7.0,89,0.00,,SKC,0.05,VWS V13.01,2013-04-24 23:55:00,
2013-04-24 19:56:00,47.4,44.3,29.84,SSW,206,0.0,7.0,89,0.00,,SKC,0.05,VWS V13.01,2013-04-24 23:56:00,
2013-04-24 19:57:00,47.4,44.3,29.84,SSW,206,0.0,7.0,89,0.00,,SKC,0.05,VWS V13.01,2013-04-24 23:57:00,
2013-04-24 19:58:00,47.4,44.3,29.84,SSW,206,0.0,7.0,89,0.00,,SKC,0.05,VWS V13.01,2013-04-24 23:58:00,
2013-04-24 19:59:00,47.4,44.3,29.85,SSW,202,1.0,7.0,89,0.00,,SKC,0.05,VWS V13.01,2013-04-24 23:59:00,
2013-04-24 20:00:00,47.4,44.3,29.84,SSW,202,1.0,7.0,89,0.00,,SKC,0.05,VWS V13.01,2013-04-25 00:00:00,
2013-04-24 20:01:00,47.4,44.3,29.85,SSW,202,0.0,1.0,89,0.00,,SKC,0.05,VWS V13.01,2013-04-25 00:01:00,
2013-04-24 20:02:00,47.4,44.3,29.85,SSW,202,0.0,1.0,89,0.00,,SKC,0.05,VWS V13.01,2013-04-25 00:02:00,
2013-04-24 20:03:00,47.4,44.3,29.84,SSW,202,1.0,2.0,89,0.00,,SKC,0.05,VWS V13.01,2013-04-25 00:03:00,
2013-04-24 20:04:00,47.4,44.3,29.84,SSW,198,1.0,2.0,89,0.00,,SKC,0.05,VWS V13.01,2013-04-25 00:04:00,
2013-04-24 20:05:00,47.4,44.3,29.85,SSW,205,3.0,3.0,89,0.00,,SKC,0.05,VWS V13.01,2013-04-25 00:05:00,
2013-04-24 20:06:00,47.4,44.3,29.85,SSW,206,5.0,5.0,89,0.00,,SKC,0.05,VWS V13.01,2013-04-25 00:06:00,
2013-04-24 20:07:00,47.4,44.3,29.85,SSW,206,2.0,5.0,89,0.00,,SKC,0.05,VWS V13.01,2013-04-25 00:07:00,
2013-04-24 20:08:00,47.3,44.2,29.85,SSW,205,1.0,5.0,89,0.00,,SKC,0.05,VWS V13.01,2013-04-25 00:08:00,
2013-04-24 20:09:00,47.3,44.2,29.85,SSW,205,0.0,5.0,89,0.00,,SKC,0.05,VWS V13.01,2013-04-25 00:09:00,
2013-04-24 20:10:00,47.3,44.2,29.85,SSW,207,4.0,5.0,89,0.00,,SKC,0.05,VWS V13.01,2013-04-25 00:10:00,
2013-04-24 20:11:00,47.3,44.2,29.84,SSW,208,0.0,5.0,89,0.00,,SKC,0.05,VWS V13.01,2013-04-25 00:11:00,
2013-04-24 20:12:00,47.2,44.1,29.84,SSW,207,1.0,5.0,89,0.00,,SKC,0.05,VWS V13.01,2013-04-25 00:12:00,
2013-04-24 20:13:00,47.2,44.1,29.84,SSW,211,5.0,5.0,89,0.00,,SKC,0.05,VWS V13.01,2013-04-25 00:13:00,
2013-04-24 20:14:00,47.2,44.1,29.84,SW,218,2.0,6.0,89,0.00,,SKC,0.05,VWS V13.01,2013-04-25 00:14:00,
2013-04-24 20:15:00,47.2,44.1,29.84,SW,218,2.0,6.0,89,0.00,,SKC,0.05,VWS V13.01,2013-04-25 00:15:00,
2013-04-24 20:16:00,47.1,44.0,29.84,SW,218,2.0,6.0,89,0.00,,SKC,0.05,VWS V13.01,2013-04-25 00:16:00,
2013-04-24 20:17:00,47.0,43.9,29.84,SSW,192,5.0,6.0,89,0.00,,SKC,0.05,VWS V13.01,2013-04-25 00:17:00,
2013-04-24 20:18:00,47.0,43.9,29.84,South,182,3.0,6.0,89,0.00,,SKC,0.05,VWS V13.01,2013-04-25 00:18:00,
2013-04-24 20:19:00,47.0,43.9,29.84,South,186,4.0,6.0,89,0.00,,SKC,0.05,VWS V13.01,2013-04-25 00:19:00,
2013-04-24 20:20:00,46.9,43.8,29.84,South,186,0.0,6.0,89,0.00,,SKC,0.05,VWS V13.01,2013-04-25 00:20:00,
2013-04-24 20:21:00,46.9,43.8,29.84,South,187,2.0,6.0,89,0.00,,SKC,0.05,VWS V13.01,2013-04-25 00:21:00,
2013-04-24 20:22:00,46.9,43.8,29.84,South,187,1.0,6.0,89,0.00,,SKC,0.05,VWS V13.01,2013-04-25 00:22:00,
2013-04-24 20:23:00,46.9,43.8,29.84,SSW,192,1.0,6.0,89,0.00,,SKC,0.05,VWS V13.01,2013-04-25 00:23:00,
2013-04-24 20:24:00,46.9,43.8,29.84,SSW,196,2.0,6.0,89,0.00,,SKC,0.05,VWS V13.01,2013-04-25 00:24:00,
2013-04-24 20:25:00,46.9,43.8,29.84,South,187,1.0,6.0,89,0.00,,SKC,0.05,VWS V13.01,2013-04-25 00:25:00,
2013-04-24 20:26:00,46.8,43.7,29.84,South,188,7.0,10.0,89,0.00,,SKC,0.05,VWS V13.01,2013-04-25 00:26:00,
2013-04-24 20:27:00,46.9,43.8,29.84,SSW,206,2.0,10.0,89,0.00,,SKC,0.05,VWS V13.01,2013-04-25 00:27:00,
2013-04-24 20:28:00,46.9,43.8,29.84,SSW,206,0.0,10.0,89,0.00,,SKC,0.05,VWS V13.01,2013-04-25 00:28:00,
2013-04-24 20:29:00,46.9,43.8,29.84,SSW,206,1.0,10.0,89,0.00,,SKC,0.05,VWS V13.01,2013-04-25 00:29:00,
2013-04-24 20:30:00,46.9,43.8,29.84,SSW,206,0.0,10.0,89,0.00,,SKC,0.05,VWS V13.01,2013-04-25 00:30:00,
2013-04-24 20:31:00,46.9,43.8,29.84,SSW,206,0.0,0.0,89,0.00,,SKC,0.05,VWS V13.01,2013-04-25 00:31:00,
2013-04-24 20:32:00,46.9,43.8,29.84,South,191,3.0,4.0,89,0.00,,SKC,0.05,VWS V13.01,2013-04-25 00:32:00,
2013-04-24 20:33:00,46.8,43.7,29.84,SSW,192,6.0,6.0,89,0.00,,SKC,0.05,VWS V13.01,2013-04-25 00:33:00,
2013-04-24 20:34:00,46.8,43.7,29.84,SSW,199,4.0,6.0,89,0.00,,SKC,0.05,VWS V13.01,2013-04-25 00:34:00,
2013-04-24 20:35:00,46.9,43.8,29.84,SSW,200,2.0,6.0,89,0.00,,SKC,0.05,VWS V13.01,2013-04-25 00:35:00,
2013-04-24 20:36:00,46.8,43.7,29.84,SSW,200,0.0,6.0,89,0.00,,SKC,0.05,VWS V13.01,2013-04-25 00:36:00,
2013-04-24 20:37:00,46.8,43.7,29.84,SSW,198,3.0,6.0,89,0.00,,SKC,0.05,VWS V13.01,2013-04-25 00:37:00,
2013-04-24 20:38:00,46.8,43.7,29.84,South,176,3.0,7.0,89,0.00,,SKC,0.05,VWS V13.01,2013-04-25 00:38:00,
2013-04-24 20:39:00,46.8,43.7,29.84,SSW,202,7.0,7.0,89,0.00,,SKC,0.05,VWS V13.01,2013-04-25 00:39:00,
2013-04-24 20:40:00,46.8,43.7,29.84,SSW,198,1.0,7.0,89,0.00,,SKC,0.05,VWS V13.01,2013-04-25 00:40:00,
2013-04-24 20:41:00,46.8,43.7,29.84,SSW,198,3.0,7.0,89,0.00,,SKC,0.05,VWS V13.01,2013-04-25 00:41:00,
2013-04-24 20:42:00,46.8,43.7,29.84,SSW,209,2.0,9.0,89,0.00,,SKC,0.05,VWS V13.01,2013-04-25 00:42:00,
2013-04-24 20:43:00,46.8,43.7,29.84,SSW,209,0.0,9.0,89,0.00,,SKC,0.05,VWS V13.01,2013-04-25 00:43:00,
2013-04-24 20:44:00,46.8,43.7,29.84,SSW,199,3.0,9.0,89,0.00,,SKC,0.05,VWS V13.01,2013-04-25 00:44:00,
2013-04-24 20:45:00,46.8,43.7,29.84,SSW,198,0.0,9.0,89,0.00,,SKC,0.05,VWS V13.01,2013-04-25 00:45:00,
2013-04-24 20:46:00,46.8,43.7,29.84,SSW,196,2.0,9.0,89,0.00,,SKC,0.05,VWS V13.01,2013-04-25 00:46:00,
2013-04-24 20:47:00,46.8,43.7,29.84,SSW,196,2.0,9.0,89,0.00,,SKC,0.05,VWS V13.01,2013-04-25 00:47:00,
2013-04-24 20:48:00,46.7,43.6,29.84,SSW,203,0.0,9.0,89,0.00,,SKC,0.05,VWS V13.01,2013-04-25 00:48:00,
2013-04-24 20:49:00,46.7,43.6,29.84,SSW,210,5.0,9.0,89,0.00,,SKC,0.05,VWS V13.01,2013-04-25 00:49:00,
2013-04-24 20:50:00,46.7,43.6,29.84,WSW,250,5.0,9.0,89,0.00,,SKC,0.05,VWS V13.01,2013-04-25 00:50:00,
2013-04-24 20:51:00,46.7,43.6,29.84,WSW,244,2.0,9.0,89,0.00,,SKC,0.05,VWS V13.01,2013-04-25 00:51:00,
2013-04-24 20:52:00,46.7,43.6,29.84,South,183,3.0,9.0,89,0.00,,SKC,0.05,VWS V13.01,2013-04-25 00:52:00,
2013-04-24 20:53:00,46.6,43.5,29.84,South,183,1.0,9.0,89,0.00,,SKC,0.05,VWS V13.01,2013-04-25 00:53:00,
2013-04-24 20:54:00,46.6,43.5,29.84,SSW,195,2.0,9.0,89,0.00,,SKC,0.05,VWS V13.01,2013-04-25 00:54:00,
2013-04-24 20:55:00,46.6,43.5,29.83,West,275,1.0,9.0,89,0.00,,SKC,0.05,VWS V13.01,2013-04-25 00:55:00,
2013-04-24 20:56:00,46.5,43.4,29.84,WSW,245,4.0,9.0,89,0.00,,SKC,0.05,VWS V13.01,2013-04-25 00:56:00,
2013-04-24 20:57:00,46.5,43.4,29.84,SSW,198,0.0,9.0,89,0.00,,SKC,0.05,VWS V13.01,2013-04-25 00:57:00,
2013-04-24 20:58:00,46.5,43.4,29.84,SSE,164,5.0,9.0,89,0.00,,SKC,0.05,VWS V13.01,2013-04-25 00:58:00,
2013-04-24 20:59:00,46.5,43.4,29.84,SSW,199,3.0,9.0,89,0.00,,SKC,0.05,VWS V13.01,2013-04-25 00:59:00,
2013-04-24 21:00:00,46.4,43.3,29.84,South,180,3.0,9.0,89,0.00,,SKC,0.05,VWS V13.01,2013-04-25 01:00:00,
2013-04-24 21:01:00,46.4,43.3,29.84,South,190,1.0,3.0,89,0.00,,SKC,0.05,VWS V13.01,2013-04-25 01:01:00,
2013-04-24 21:02:00,46.4,43.3,29.84,West,259,6.0,10.0,89,0.00,,SKC,0.05,VWS V13.01,2013-04-25 01:02:00,
2013-04-24 21:03:00,46.4,43.3,29.84,SSW,213,5.0,10.0,89,0.00,,SKC,0.05,VWS V13.01,2013-04-25 01:03:00,
2013-04-24 21:04:00,46.3,43.2,29.84,SW,222,3.0,11.0,89,0.00,,SKC,0.05,VWS V13.01,2013-04-25 01:04:00,
2013-04-24 21:05:00,46.3,43.2,29.84,SSW,193,2.0,11.0,89,0.00,,SKC,0.05,VWS V13.01,2013-04-25 01:05:00,
2013-04-24 21:06:00,46.3,43.2,29.84,South,184,2.0,11.0,89,0.00,,SKC,0.05,VWS V13.01,2013-04-25 01:06:00,
2013-04-24 21:07:00,46.3,43.2,29.84,South,190,2.0,11.0,89,0.00,,SKC,0.05,VWS V13.01,2013-04-25 01:07:00,
2013-04-24 21:08:00,46.3,43.2,29.84,SW,217,3.0,11.0,89,0.00,,SKC,0.05,VWS V13.01,2013-04-25 01:08:00,
2013-04-24 21:09:00,46.3,43.2,29.84,WSW,241,3.0,11.0,89,0.00,,SKC,0.05,VWS V13.01,2013-04-25 01:09:00,
2013-04-24 21:10:00,46.3,43.2,29.84,WSW,240,1.0,11.0,89,0.00,,SKC,0.05,VWS V13.01,2013-04-25 01:10:00,
2013-04-24 21:11:00,46.3,43.2,29.84,SW,234,3.0,11.0,89,0.00,,SKC,0.05,VWS V13.01,2013-04-25 01:11:00,
2013-04-24 21:12:00,46.2,43.1,29.84,SW,231,0.0,11.0,89,0.00,,SKC,0.05,VWS V13.01,2013-04-25 01:12:00,
2013-04-24 21:13:00,46.2,43.1,29.84,SW,230,1.0,11.0,89,0.00,,SKC,0.05,VWS V13.01,2013-04-25 01:13:00,
2013-04-24 21:14:00,46.2,43.1,29.84,SW,233,0.0,11.0,89,0.00,,SKC,0.05,VWS V13.01,2013-04-25 01:14:00,
2013-04-24 21:15:00,46.1,43.0,29.84,SW,232,1.0,11.0,89,0.00,,SKC,0.05,VWS V13.01,2013-04-25 01:15:00,
2013-04-24 21:16:00,46.1,43.0,29.84,SW,229,4.0,11.0,89,0.00,,SKC,0.05,VWS V13.01,2013-04-25 01:16:00,
2013-04-24 21:17:00,46.1,43.0,29.84,South,176,1.0,11.0,89,0.00,,SKC,0.05,VWS V13.01,2013-04-25 01:17:00,
2013-04-24 21:18:00,46.1,43.0,29.84,South,179,2.0,11.0,89,0.00,,SKC,0.05,VWS V13.01,2013-04-25 01:18:00,
2013-04-24 21:19:00,46.0,43.0,29.84,South,179,2.0,11.0,89,0.00,,SKC,0.05,VWS V13.01,2013-04-25 01:19:00,
2013-04-24 21:20:00,46.0,43.0,29.84,South,183,3.0,11.0,89,0.00,,SKC,0.05,VWS V13.01,2013-04-25 01:20:00,
2013-04-24 21:21:00,46.0,43.0,29.84,South,185,3.0,11.0,89,0.00,,SKC,0.05,VWS V13.01,2013-04-25 01:21:00,
2013-04-24 21:22:00,45.9,42.8,29.84,South,188,2.0,11.0,89,0.00,,SKC,0.05,VWS V13.01,2013-04-25 01:22:00,
2013-04-24 21:23:00,45.9,42.8,29.84,South,184,2.0,11.0,89,0.00,,SKC,0.05,VWS V13.01,2013-04-25 01:23:00,
2013-04-24 21:24:00,45.9,42.8,29.84,SSW,207,3.0,11.0,89,0.00,,SKC,0.05,VWS V13.01,2013-04-25 01:24:00,
2013-04-24 21:25:00,45.9,42.8,29.84,SW,229,4.0,11.0,89,0.00,,SKC,0.05,VWS V13.01,2013-04-25 01:25:00,
2013-04-24 21:26:00,45.8,42.8,29.84,SSW,192,4.0,11.0,89,0.00,,SKC,0.05,VWS V13.01,2013-04-25 01:26:00,
2013-04-24 21:27:00,45.8,42.8,29.84,SSW,206,0.0,11.0,89,0.00,,SKC,0.05,VWS V13.01,2013-04-25 01:27:00,
2013-04-24 21:28:00,45.8,43.0,29.84,SSW,205,3.0,11.0,90,0.00,,SKC,0.05,VWS V13.01,2013-04-25 01:28:00,
2013-04-24 21:29:00,45.8,43.0,29.84,SSW,206,5.0,11.0,90,0.00,,SKC,0.05,VWS V13.01,2013-04-25 01:29:00,
2013-04-24 21:30:00,45.8,43.0,29.84,SSW,197,2.0,11.0,90,0.00,,SKC,0.05,VWS V13.01,2013-04-25 01:30:00,
2013-04-24 21:31:00,45.7,42.9,29.84,SSW,198,3.0,3.0,90,0.00,,SKC,0.05,VWS V13.01,2013-04-25 01:31:00,
2013-04-24 21:32:00,45.7,42.9,29.84,SSW,209,2.0,4.0,90,0.00,,SKC,0.05,VWS V13.01,2013-04-25 01:32:00,
2013-04-24 21:33:00,45.7,42.9,29.84,South,170,2.0,5.0,90,0.00,,SKC,0.05,VWS V13.01,2013-04-25 01:33:00,
2013-04-24 21:34:00,45.7,42.9,29.84,South,172,2.0,5.0,90,0.00,,SKC,0.05,VWS V13.01,2013-04-25 01:34:00,
2013-04-24 21:35:00,45.6,42.8,29.84,South,187,2.0,5.0,90,0.00,,SKC,0.05,VWS V13.01,2013-04-25 01:35:00,
2013-04-24 21:36:00,45.6,42.8,29.83,SSW,194,0.0,5.0,90,0.00,,SKC,0.05,VWS V13.01,2013-04-25 01:36:00,
2013-04-24 21:37:00,45.6,42.8,29.83,SSW,194,0.0,5.0,90,0.00,,SKC,0.05,VWS V13.01,2013-04-25 01:37:00,
2013-04-24 21:38:00,45.6,42.8,29.83,SW,219,4.0,5.0,90,0.00,,SKC,0.05,VWS V13.01,2013-04-25 01:38:00,
2013-04-24 21:39:00,45.6,42.8,29.83,SSW,203,1.0,6.0,90,0.00,,SKC,0.05,VWS V13.01,2013-04-25 01:39:00,
2013-04-24 21:40:00,45.6,42.8,29.83,South,191,4.0,6.0,90,0.00,,SKC,0.05,VWS V13.01,2013-04-25 01:40:00,
2013-04-24 21:41:00,45.6,42.8,29.83,SSW,202,3.0,6.0,90,0.00,,SKC,0.05,VWS V13.01,2013-04-25 01:41:00,
2013-04-24 21:42:00,45.6,42.8,29.83,SW,219,0.0,6.0,90,0.00,,SKC,0.05,VWS V13.01,2013-04-25 01:42:00,
2013-04-24 21:43:00,45.6,42.8,29.82,SW,217,2.0,6.0,90,0.00,,SKC,0.05,VWS V13.01,2013-04-25 01:43:00,
2013-04-24 21:44:00,45.6,42.8,29.82,SE,144,5.0,6.0,90,0.00,,SKC,0.05,VWS V13.01,2013-04-25 01:44:00,
2013-04-24 21:45:00,45.6,42.8,29.82,SSW,192,1.0,6.0,90,0.00,,SKC,0.05,VWS V13.01,2013-04-25 01:45:00,
2013-04-24 21:46:00,45.6,42.8,29.82,SSW,192,0.0,6.0,90,0.00,,SKC,0.05,VWS V13.01,2013-04-25 01:46:00,
2013-04-24 21:47:00,45.6,42.8,29.83,South,188,1.0,6.0,90,0.00,,SKC,0.05,VWS V13.01,2013-04-25 01:47:00,
2013-04-24 21:48:00,45.6,42.8,29.83,SSW,195,4.0,6.0,90,0.00,,SKC,0.05,VWS V13.01,2013-04-25 01:48:00,
2013-04-24 21:49:00,45.6,42.8,29.83,SSW,201,0.0,6.0,90,0.00,,SKC,0.05,VWS V13.01,2013-04-25 01:49:00,
2013-04-24 21:50:00,45.6,42.8,29.83,SSW,201,0.0,6.0,90,0.00,,SKC,0.05,VWS V13.01,2013-04-25 01:50:00,
2013-04-24 21:51:00,45.6,42.8,29.83,SSE,165,4.0,6.0,90,0.00,,SKC,0.05,VWS V13.01,2013-04-25 01:51:00,
2013-04-24 21:52:00,45.6,42.8,29.83,South,174,4.0,6.0,90,0.00,,SKC,0.05,VWS V13.01,2013-04-25 01:52:00,
2013-04-24 21:53:00,45.6,42.8,29.82,South,173,1.0,6.0,90,0.00,,SKC,0.05,VWS V13.01,2013-04-25 01:53:00,
2013-04-24 21:54:00,45.5,42.7,29.83,South,176,1.0,6.0,90,0.00,,SKC,0.05,VWS V13.01,2013-04-25 01:54:00,
2013-04-24 21:55:00,45.5,42.7,29.83,SSW,207,4.0,6.0,90,0.00,,SKC,0.05,VWS V13.01,2013-04-25 01:55:00,
2013-04-24 21:56:00,45.5,42.7,29.83,WSW,245,2.0,6.0,90,0.00,,SKC,0.05,VWS V13.01,2013-04-25 01:56:00,
2013-04-24 21:57:00,45.5,42.7,29.83,SW,234,3.0,6.0,90,0.00,,SKC,0.05,VWS V13.01,2013-04-25 01:57:00,
2013-04-24 21:58:00,45.5,42.7,29.83,SW,234,4.0,6.0,90,0.00,,SKC,0.05,VWS V13.01,2013-04-25 01:58:00,
2013-04-24 21:59:00,45.5,42.7,29.83,SW,221,5.0,6.0,90,0.00,,SKC,0.05,VWS V13.01,2013-04-25 01:59:00,
2013-04-24 22:00:00,45.5,42.7,29.83,SW,220,0.0,6.0,90,0.00,,SKC,0.05,VWS V13.01,2013-04-25 02:00:00,
2013-04-24 22:01:00,45.5,42.7,29.83,SW,219,0.0,0.0,90,0.00,,SKC,0.05,VWS V13.01,2013-04-25 02:01:00,
2013-04-24 22:02:00,45.5,42.7,29.83,SW,221,1.0,3.0,90,0.00,,SKC,0.05,VWS V13.01,2013-04-25 02:02:00,
2013-04-24 22:03:00,45.5,42.7,29.83,SW,221,0.0,3.0,90,0.00,,SKC,0.05,VWS V13.01,2013-04-25 02:03:00,
2013-04-24 22:04:00,45.5,42.7,29.83,SW,221,2.0,3.0,90,0.00,,SKC,0.05,VWS V13.01,2013-04-25 02:04:00,
2013-04-24 22:05:00,45.5,42.7,29.83,SW,223,1.0,5.0,90,0.00,,SKC,0.05,VWS V13.01,2013-04-25 02:05:00,
2013-04-24 22:06:00,45.5,42.7,29.83,SW,223,3.0,5.0,90,0.00,,SKC,0.05,VWS V13.01,2013-04-25 02:06:00,
2013-04-24 22:07:00,45.5,42.5,29.83,SW,217,0.0,5.0,89,0.00,,SKC,0.05,VWS V13.01,2013-04-25 02:07:00,
2013-04-24 22:08:00,45.5,42.5,29.83,SW,217,0.0,5.0,89,0.00,,SKC,0.05,VWS V13.01,2013-04-25 02:08:00,
2013-04-24 22:09:00,45.5,42.5,29.83,SW,215,0.0,5.0,89,0.00,,SKC,0.05,VWS V13.01,2013-04-25 02:09:00,
2013-04-24 22:10:00,45.5,42.5,29.83,SW,220,3.0,5.0,89,0.00,,SKC,0.05,VWS V13.01,2013-04-25 02:10:00,
2013-04-24 22:11:00,45.4,42.3,29.83,SW,216,0.0,5.0,89,0.00,,SKC,0.05,VWS V13.01,2013-04-25 02:11:00,
2013-04-24 22:12:00,45.5,42.5,29.83,SW,214,4.0,6.0,89,0.00,,SKC,0.05,VWS V13.01,2013-04-25 02:12:00,
2013-04-24 22:13:00,45.4,42.3,29.83,SSW,197,3.0,6.0,89,0.00,,SKC,0.05,VWS V13.01,2013-04-25 02:13:00,
2013-04-24 22:14:00,45.4,42.3,29.83,SSW,198,2.0,6.0,89,0.00,,SKC,0.05,VWS V13.01,2013-04-25 02:14:00,
2013-04-24 22:15:00,45.4,42.3,29.83,SSW,199,2.0,6.0,89,0.00,,SKC,0.05,VWS V13.01,2013-04-25 02:15:00,
2013-04-24 22:16:00,45.4,42.3,29.83,SSW,199,1.0,6.0,89,0.00,,SKC,0.05,VWS V13.01,2013-04-25 02:16:00,
2013-04-24 22:17:00,45.4,42.6,29.83,SSW,204,3.0,6.0,90,0.00,,SKC,0.05,VWS V13.01,2013-04-25 02:17:00,
2013-04-24 22:18:00,45.4,42.6,29.83,SSW,204,1.0,6.0,90,0.00,,SKC,0.05,VWS V13.01,2013-04-25 02:18:00,
2013-04-24 22:19:00,45.4,42.6,29.83,SSW,202,2.0,6.0,90,0.00,,SKC,0.05,VWS V13.01,2013-04-25 02:19:00,
2013-04-24 22:20:00,45.4,42.3,29.83,West,269,2.0,6.0,89,0.00,,SKC,0.05,VWS V13.01,2013-04-25 02:20:00,
2013-04-24 22:21:00,45.4,42.3,29.83,SSW,203,4.0,6.0,89,0.00,,SKC,0.05,VWS V13.01,2013-04-25 02:21:00,
2013-04-24 22:22:00,45.4,42.3,29.83,SW,218,3.0,6.0,89,0.00,,SKC,0.05,VWS V13.01,2013-04-25 02:22:00,
2013-04-24 22:23:00,45.4,42.3,29.83,SW,215,3.0,6.0,89,0.00,,SKC,0.05,VWS V13.01,2013-04-25 02:23:00,
2013-04-24 22:24:00,45.4,42.6,29.83,SW,214,6.0,6.0,90,0.00,,SKC,0.05,VWS V13.01,2013-04-25 02:24:00,
2013-04-24 22:25:00,45.4,42.3,29.83,SSW,208,3.0,7.0,89,0.00,,SKC,0.05,VWS V13.01,2013-04-25 02:25:00,
2013-04-24 22:26:00,45.4,42.3,29.83,SSW,205,3.0,7.0,89,0.00,,SKC,0.05,VWS V13.01,2013-04-25 02:26:00,
2013-04-24 22:27:00,45.4,42.6,29.83,SSE,167,6.0,7.0,90,0.00,,SKC,0.05,VWS V13.01,2013-04-25 02:27:00,
2013-04-24 22:28:00,45.4,42.6,29.83,SSW,200,2.0,7.0,90,0.00,,SKC,0.05,VWS V13.01,2013-04-25 02:28:00,
2013-04-24 22:29:00,45.5,42.7,29.83,SSW,211,3.0,7.0,90,0.00,,SKC,0.05,VWS V13.01,2013-04-25 02:29:00,
2013-04-24 22:30:00,45.5,42.7,29.83,SSW,199,5.0,7.0,90,0.00,,SKC,0.05,VWS V13.01,2013-04-25 02:30:00,
2013-04-24 22:31:00,45.5,42.7,29.83,SSW,192,4.0,5.0,90,0.00,,SKC,0.05,VWS V13.01,2013-04-25 02:31:00,
2013-04-24 22:32:00,45.5,42.7,29.83,SSW,198,1.0,5.0,90,0.00,,SKC,0.05,VWS V13.01,2013-04-25 02:32:00,
2013-04-24 22:33:00,45.5,42.7,29.83,South,176,0.0,5.0,90,0.00,,SKC,0.05,VWS V13.01,2013-04-25 02:33:00,
2013-04-24 22:34:00,45.5,42.7,29.83,WSW,254,2.0,5.0,90,0.00,,SKC,0.05,VWS V13.01,2013-04-25 02:34:00,
2013-04-24 22:35:00,45.5,42.5,29.83,SSW,207,3.0,5.0,89,0.00,,SKC,0.05,VWS V13.01,2013-04-25 02:35:00,
2013-04-24 22:36:00,45.5,42.5,29.83,SSW,209,3.0,5.0,89,0.00,,SKC,0.05,VWS V13.01,2013-04-25 02:36:00,
2013-04-24 22:37:00,45.6,42.5,29.83,SSW,210,0.0,5.0,89,0.00,,SKC,0.05,VWS V13.01,2013-04-25 02:37:00,
2013-04-24 22:38:00,45.6,42.5,29.83,SSW,199,3.0,7.0,89,0.00,,SKC,0.05,VWS V13.01,2013-04-25 02:38:00,
2013-04-24 22:39:00,45.6,42.5,29.83,SW,215,3.0,9.0,89,0.00,,SKC,0.05,VWS V13.01,2013-04-25 02:39:00,
2013-04-24 22:40:00,45.6,42.5,29.83,SSW,211,4.0,9.0,89,0.00,,SKC,0.05,VWS V13.01,2013-04-25 02:40:00,
2013-04-24 22:41:00,45.6,42.5,29.83,South,188,3.0,9.0,89,0.00,,SKC,0.05,VWS V13.01,2013-04-25 02:41:00,
2013-04-24 22:42:00,45.6,42.5,29.83,SSW,200,4.0,9.0,89,0.00,,SKC,0.05,VWS V13.01,2013-04-25 02:42:00,
2013-04-24 22:43:00,45.7,42.7,29.83,South,191,4.0,9.0,89,0.00,,SKC,0.05,VWS V13.01,2013-04-25 02:43:00,
2013-04-24 22:44:00,45.7,42.7,29.83,SW,227,2.0,9.0,89,0.00,,SKC,0.05,VWS V13.01,2013-04-25 02:44:00,
2013-04-24 22:45:00,45.7,42.7,29.83,SSW,196,3.0,9.0,89,0.00,,SKC,0.05,VWS V13.01,2013-04-25 02:45:00,
2013-04-24 22:46:00,45.8,42.8,29.83,SSW,194,4.0,9.0,89,0.00,,SKC,0.05,VWS V13.01,2013-04-25 02:46:00,
2013-04-24 22:47:00,45.8,42.8,29.83,South,173,2.0,9.0,89,0.00,,SKC,0.05,VWS V13.01,2013-04-25 02:47:00,
2013-04-24 22:48:00,45.8,42.8,29.83,SSW,194,10.0,10.0,89,0.00,,SKC,0.05,VWS V13.01,2013-04-25 02:48:00,
2013-04-24 22:49:00,45.8,42.8,29.82,South,186,4.0,10.0,89,0.00,,SKC,0.05,VWS V13.01,2013-04-25 02:49:00,
2013-04-24 22:50:00,45.8,42.8,29.82,SW,234,7.0,10.0,89,0.00,,SKC,0.05,VWS V13.01,2013-04-25 02:50:00,
2013-04-24 22:51:00,45.8,42.8,29.82,SSW,198,4.0,10.0,89,0.00,,SKC,0.05,VWS V13.01,2013-04-25 02:51:00,
2013-04-24 22:52:00,45.8,42.8,29.82,South,178,3.0,10.0,89,0.00,,SKC,0.05,VWS V13.01,2013-04-25 02:52:00,
2013-04-24 22:53:00,45.8,42.8,29.82,SSW,199,2.0,10.0,89,0.00,,SKC,0.05,VWS V13.01,2013-04-25 02:53:00,
2013-04-24 22:54:00,45.8,42.8,29.82,SSW,196,3.0,10.0,89,0.00,,SKC,0.05,VWS V13.01,2013-04-25 02:54:00,
2013-04-24 22:55:00,45.8,42.8,29.82,SSW,195,1.0,10.0,89,0.00,,SKC,0.05,VWS V13.01,2013-04-25 02:55:00,
2013-04-24 22:56:00,45.8,42.8,29.82,WSW,257,3.0,10.0,89,0.00,,SKC,0.05,VWS V13.01,2013-04-25 02:56:00,
2013-04-24 22:57:00,45.8,42.8,29.82,SSE,161,5.0,10.0,89,0.00,,SKC,0.05,VWS V13.01,2013-04-25 02:57:00,
2013-04-24 22:58:00,45.8,42.8,29.82,SSW,196,1.0,10.0,89,0.00,,SKC,0.05,VWS V13.01,2013-04-25 02:58:00,
2013-04-24 22:59:00,45.8,42.8,29.82,SSW,194,3.0,10.0,89,0.00,,SKC,0.05,VWS V13.01,2013-04-25 02:59:00,
2013-04-24 23:00:00,45.9,42.8,29.82,SW,225,2.0,10.0,89,0.00,,SKC,0.05,VWS V13.01,2013-04-25 03:00:00,
2013-04-24 23:01:00,45.9,42.8,29.82,South,186,8.0,9.0,89,0.00,,SKC,0.05,VWS V13.01,2013-04-25 03:01:00,
2013-04-24 23:02:00,45.9,42.8,29.82,SW,217,2.0,9.0,89,0.00,,SKC,0.05,VWS V13.01,2013-04-25 03:02:00,
2013-04-24 23:03:00,45.9,42.8,29.82,SW,215,4.0,9.0,89,0.00,,SKC,0.05,VWS V13.01,2013-04-25 03:03:00,
2013-04-24 23:04:00,46.0,43.0,29.82,WSW,237,3.0,9.0,89,0.00,,SKC,0.05,VWS V13.01,2013-04-25 03:04:00,
2013-04-24 23:05:00,46.0,43.0,29.82,SSE,163,3.0,9.0,89,0.00,,SKC,0.05,VWS V13.01,2013-04-25 03:05:00,
2013-04-24 23:06:00,46.0,43.0,29.82,SSW,209,3.0,9.0,89,0.00,,SKC,0.05,VWS V13.01,2013-04-25 03:06:00,
2013-04-24 23:07:00,46.0,43.0,29.82,South,190,4.0,9.0,89,0.00,,SKC,0.05,VWS V13.01,2013-04-25 03:07:00,
2013-04-24 23:08:00,46.0,43.0,29.82,SSW,195,3.0,9.0,89,0.00,,SKC,0.05,VWS V13.01,2013-04-25 03:08:00,
2013-04-24 23:09:00,46.0,43.0,29.81,South,180,2.0,9.0,89,0.00,,SKC,0.05,VWS V13.01,2013-04-25 03:09:00,
2013-04-24 23:10:00,46.0,43.0,29.81,SSW,205,5.0,9.0,89,0.00,,SKC,0.05,VWS V13.01,2013-04-25 03:10:00,
2013-04-24 23:11:00,46.0,43.0,29.81,SSW,194,1.0,9.0,89,0.00,,SKC,0.05,VWS V13.01,2013-04-25 03:11:00,
2013-04-24 23:12:00,46.0,43.0,29.82,SSW,195,1.0,9.0,89,0.00,,SKC,0.05,VWS V13.01,2013-04-25 03:12:00,
2013-04-24 23:13:00,46.0,43.0,29.82,SW,221,4.0,9.0,89,0.00,,SKC,0.05,VWS V13.01,2013-04-25 03:13:00,
2013-04-24 23:14:00,46.1,43.0,29.82,SW,217,3.0,9.0,89,0.00,,SKC,0.05,VWS V13.01,2013-04-25 03:14:00,
2013-04-24 23:15:00,46.1,43.0,29.82,SW,221,1.0,9.0,89,0.00,,SKC,0.05,VWS V13.01,2013-04-25 03:15:00,
2013-04-24 23:16:00,46.2,43.1,29.82,West,275,1.0,9.0,89,0.00,,SKC,0.05,VWS V13.01,2013-04-25 03:16:00,
2013-04-24 23:17:00,46.3,43.2,29.82,SW,221,3.0,9.0,89,0.00,,SKC,0.05,VWS V13.01,2013-04-25 03:17:00,
2013-04-24 23:18:00,46.3,43.2,29.82,SSE,165,3.0,9.0,89,0.00,,SKC,0.05,VWS V13.01,2013-04-25 03:18:00,
2013-04-24 23:19:00,46.4,43.3,29.82,South,179,10.0,10.0,89,0.00,,SKC,0.05,VWS V13.01,2013-04-25 03:19:00,
2013-04-24 23:20:00,46.4,43.3,29.82,South,190,9.0,10.0,89,0.00,,SKC,0.05,VWS V13.01,2013-04-25 03:20:00,
2013-04-24 23:21:00,46.5,43.4,29.82,SSW,209,2.0,10.0,89,0.00,,SKC,0.05,VWS V13.01,2013-04-25 03:21:00,
2013-04-24 23:22:00,46.5,43.4,29.82,South,187,3.0,10.0,89,0.00,,SKC,0.05,VWS V13.01,2013-04-25 03:22:00,
2013-04-24 23:23:00,46.6,43.5,29.82,South,178,6.0,10.0,89,0.00,,SKC,0.05,VWS V13.01,2013-04-25 03:23:00,
2013-04-24 23:24:00,46.6,43.5,29.81,South,176,2.0,10.0,89,0.00,,SKC,0.05,VWS V13.01,2013-04-25 03:24:00,
2013-04-24 23:25:00,46.7,43.6,29.81,South,191,5.0,10.0,89,0.00,,SKC,0.05,VWS V13.01,2013-04-25 03:25:00,
2013-04-24 23:26:00,46.7,43.6,29.81,South,186,1.0,10.0,89,0.00,,SKC,0.05,VWS V13.01,2013-04-25 03:26:00,
2013-04-24 23:27:00,46.8,43.4,29.81,SW,218,2.0,10.0,88,0.00,,SKC,0.05,VWS V13.01,2013-04-25 03:27:00,
2013-04-24 23:28:00,46.8,43.4,29.81,SSW,194,8.0,13.0,88,0.00,,SKC,0.05,VWS V13.01,2013-04-25 03:28:00,
2013-04-24 23:29:00,46.9,43.5,29.81,South,180,3.0,13.0,88,0.00,,SKC,0.05,VWS V13.01,2013-04-25 03:29:00,
2013-04-24 23:30:00,47.0,43.6,29.81,West,275,3.0,13.0,88,0.00,,SKC,0.05,VWS V13.01,2013-04-25 03:30:00,
2013-04-24 23:31:00,47.0,43.6,29.81,West,265,2.0,3.0,88,0.00,,SKC,0.05,VWS V13.01,2013-04-25 03:31:00,
2013-04-24 23:32:00,47.0,43.6,29.81,SW,218,4.0,8.0,88,0.00,,SKC,0.05,VWS V13.01,2013-04-25 03:32:00,
2013-04-24 23:33:00,47.1,43.7,29.81,SSW,196,3.0,8.0,88,0.00,,SKC,0.05,VWS V13.01,2013-04-25 03:33:00,
2013-04-24 23:34:00,47.1,43.7,29.81,South,190,1.0,8.0,88,0.00,,SKC,0.05,VWS V13.01,2013-04-25 03:34:00,
2013-04-24 23:35:00,47.1,43.7,29.81,SW,235,5.0,8.0,88,0.00,,SKC,0.05,VWS V13.01,2013-04-25 03:35:00,
2013-04-24 23:36:00,47.1,43.7,29.81,South,191,2.0,8.0,88,0.00,,SKC,0.05,VWS V13.01,2013-04-25 03:36:00,
2013-04-24 23:37:00,47.1,43.7,29.81,SSW,192,6.0,12.0,88,0.00,,SKC,0.05,VWS V13.01,2013-04-25 03:37:00,
2013-04-24 23:38:00,47.1,43.7,29.81,SW,224,2.0,12.0,88,0.00,,SKC,0.05,VWS V13.01,2013-04-25 03:38:00,
2013-04-24 23:39:00,47.2,43.8,29.81,SSW,194,3.0,12.0,88,0.00,,SKC,0.05,VWS V13.01,2013-04-25 03:39:00,
2013-04-24 23:40:00,47.2,43.8,29.81,SSW,194,8.0,13.0,88,0.00,,SKC,0.05,VWS V13.01,2013-04-25 03:40:00,
2013-04-24 23:41:00,47.2,43.8,29.81,SSW,209,4.0,13.0,88,0.00,,SKC,0.05,VWS V13.01,2013-04-25 03:41:00,
2013-04-24 23:42:00,47.2,43.8,29.81,SW,226,7.0,13.0,88,0.00,,SKC,0.05,VWS V13.01,2013-04-25 03:42:00,
2013-04-24 23:43:00,47.2,43.8,29.81,SSW,213,3.0,13.0,88,0.00,,SKC,0.05,VWS V13.01,2013-04-25 03:43:00,
2013-04-24 23:44:00,47.2,43.8,29.81,SE,142,6.0,13.0,88,0.00,,SKC,0.05,VWS V13.01,2013-04-25 03:44:00,
2013-04-24 23:45:00,47.2,43.8,29.81,SW,236,3.0,13.0,88,0.00,,SKC,0.05,VWS V13.01,2013-04-25 03:45:00,
2013-04-24 23:46:00,47.2,43.8,29.81,South,173,3.0,13.0,88,0.00,,SKC,0.05,VWS V13.01,2013-04-25 03:46:00,
2013-04-24 23:47:00,47.2,43.5,29.81,South,189,9.0,13.0,87,0.00,,SKC,0.05,VWS V13.01,2013-04-25 03:47:00,
2013-04-24 23:48:00,47.2,43.5,29.81,SSW,213,7.0,13.0,87,0.00,,SKC,0.05,VWS V13.01,2013-04-25 03:48:00,
2013-04-24 23:49:00,47.2,43.5,29.81,SSW,211,4.0,13.0,87,0.00,,SKC,0.05,VWS V13.01,2013-04-25 03:49:00,
2013-04-24 23:50:00,47.2,43.5,29.81,South,183,5.0,13.0,87,0.00,,SKC,0.05,VWS V13.01,2013-04-25 03:50:00,
2013-04-24 23:51:00,47.1,43.4,29.81,SSW,194,2.0,13.0,87,0.00,,SKC,0.05,VWS V13.01,2013-04-25 03:51:00,
2013-04-24 23:52:00,47.1,43.4,29.81,SW,230,4.0,13.0,87,0.00,,SKC,0.05,VWS V13.01,2013-04-25 03:52:00,
2013-04-24 23:53:00,47.0,43.3,29.81,WSW,246,5.0,13.0,87,0.00,,SKC,0.05,VWS V13.01,2013-04-25 03:53:00,
2013-04-24 23:54:00,47.0,43.3,29.81,SSE,168,7.0,13.0,87,0.00,,SKC,0.05,VWS V13.01,2013-04-25 03:54:00,
2013-04-24 23:55:00,47.0,43.3,29.81,SSW,202,4.0,13.0,87,0.00,,SKC,0.05,VWS V13.01,2013-04-25 03:55:00,
2013-04-24 23:56:00,47.0,43.3,29.81,SSE,168,5.0,13.0,87,0.00,,SKC,0.05,VWS V13.01,2013-04-25 03:56:00,
2013-04-24 23:57:00,47.0,43.3,29.81,SSW,207,4.0,13.0,87,0.00,,SKC,0.05,VWS V13.01,2013-04-25 03:57:00,
2013-04-24 23:58:00,46.9,43.2,29.80,SE,140,2.0,13.0,87,0.00,,SKC,0.05,VWS V13.01,2013-04-25 03:58:00,
2013-04-24 23:59:00,46.9,43.5,29.80,SSW,211,3.0,13.0,88,0.00,,SKC,0.05,VWS V13.01,2013-04-25 03:59:00,